Wetterdaten: Sonntag, 06.11.2016
Datum Zeit Temp. Aussen Temp. o. S. +5cm Feuchte Auss BlattFeu 1 Luftdruck Regen Sonnenschein Regendauer Solar Windben Empfang
06.11.2016 00:00 6,1 C 6,1 C 5,0 C 93 % 14 lf 999,4 hPa 0,0 l/m 0 min 2 min 0 W/m 18,8 km/h (3 Bft) 95,74 %
06.11.2016 00:02 6,1 C 6,1 C 5,0 C 93 % 15 lf 999,3 hPa 0,0 l/m 0 min 2 min 0 W/m 10,5 km/h (2 Bft) 95,35 %
06.11.2016 00:05 6,2 C 6,1 C 4,4 C 93 % 15 lf 999,3 hPa 0,2 l/m 0 min 2 min 0 W/m 14,6 km/h (3 Bft) 95,89 %
06.11.2016 00:06 6,2 C 5,6 C 4,4 C 93 % 15 lf 999,3 hPa 0,0 l/m 0 min 1 min 0 W/m 18,8 km/h (3 Bft) 100,00 %
06.11.2016 00:08 6,2 C 5,6 C 4,4 C 93 % 15 lf 999,3 hPa 0,0 l/m 0 min 0 min 0 W/m 16,7 km/h (3 Bft) 100,00 %
06.11.2016 00:10 6,2 C 5,6 C 4,4 C 93 % 15 lf 999,3 hPa 0,0 l/m 0 min 0 min 0 W/m 14,6 km/h (3 Bft) 95,74 %
06.11.2016 00:12 6,2 C 5,6 C 4,4 C 94 % 15 lf 999,3 hPa 0,0 l/m 0 min 0 min 0 W/m 12,6 km/h (3 Bft) 94,44 %
06.11.2016 00:14 6,2 C 5,6 C 4,4 C 94 % 15 lf 999,2 hPa 0,0 l/m 0 min 0 min 0 W/m 14,6 km/h (3 Bft) 91,49 %
06.11.2016 00:16 6,2 C 5,6 C 3,9 C 94 % 15 lf 999,2 hPa 0,0 l/m 0 min 0 min 0 W/m 12,6 km/h (3 Bft) 100,00 %
06.11.2016 00:18 6,2 C 5,6 C 3,9 C 94 % 15 lf 999,2 hPa 0,0 l/m 0 min 0 min 0 W/m 14,6 km/h (3 Bft) 97,83 %
06.11.2016 00:20 6,2 C 5,6 C 3,9 C 94 % 15 lf 999,2 hPa 0,0 l/m 0 min 0 min 0 W/m 16,7 km/h (3 Bft) 97,87 %
06.11.2016 00:22 6,1 C 5,6 C 3,9 C 94 % 15 lf 999,2 hPa 0,0 l/m 0 min 0 min 0 W/m 12,6 km/h (3 Bft) 95,74 %
06.11.2016 00:24 6,1 C 5,6 C 3,9 C 94 % 15 lf 999,3 hPa 0,0 l/m 0 min 0 min 0 W/m 18,8 km/h (3 Bft) 97,87 %
06.11.2016 00:26 6,1 C 5,6 C 3,9 C 94 % 15 lf 999,3 hPa 0,0 l/m 0 min 0 min 0 W/m 14,6 km/h (3 Bft) 100,00 %
06.11.2016 00:28 6,1 C 5,6 C 3,9 C 94 % 15 lf 999,2 hPa 0,0 l/m 0 min 0 min 0 W/m 12,6 km/h (3 Bft) 97,87 %
06.11.2016 00:30 6,0 C 5,0 C 3,9 C 94 % 15 lf 999,2 hPa 0,0 l/m 0 min 0 min 0 W/m 14,6 km/h (3 Bft) 100,00 %
06.11.2016 00:32 6,0 C 5,0 C 3,9 C 94 % 15 lf 999,3 hPa 0,0 l/m 0 min 0 min 0 W/m 12,6 km/h (3 Bft) 97,92 %
06.11.2016 00:34 5,9 C 5,0 C 3,9 C 94 % 15 lf 999,3 hPa 0,0 l/m 0 min 0 min 0 W/m 12,6 km/h (3 Bft) 100,00 %
06.11.2016 00:36 5,9 C 5,0 C 3,9 C 94 % 15 lf 999,3 hPa 0,0 l/m 0 min 0 min 0 W/m 10,5 km/h (2 Bft) 97,87 %
06.11.2016 00:38 5,9 C 5,0 C 3,9 C 94 % 15 lf 999,2 hPa 0,0 l/m 0 min 0 min 0 W/m 8,4 km/h (2 Bft) 100,00 %
06.11.2016 00:40 5,9 C 5,0 C 3,9 C 94 % 15 lf 999,2 hPa 0,0 l/m 0 min 0 min 0 W/m 10,5 km/h (2 Bft) 100,00 %
06.11.2016 00:42 5,9 C 5,0 C 3,9 C 94 % 15 lf 999,3 hPa 0,0 l/m 0 min 0 min 0 W/m 12,6 km/h (3 Bft) 97,87 %
06.11.2016 00:44 5,8 C 5,0 C 3,9 C 94 % 15 lf 999,3 hPa 0,0 l/m 0 min 0 min 0 W/m 10,5 km/h (2 Bft) 97,87 %
06.11.2016 00:46 5,8 C 5,0 C 3,9 C 94 % 15 lf 999,2 hPa 0,0 l/m 0 min 0 min 0 W/m 8,4 km/h (2 Bft) 97,83 %
06.11.2016 00:48 5,8 C 5,0 C 3,9 C 94 % 15 lf 999,2 hPa 0,0 l/m 0 min 0 min 0 W/m 10,5 km/h (2 Bft) 100,00 %
06.11.2016 00:50 5,8 C 5,0 C 3,9 C 94 % 15 lf 999,3 hPa 0,0 l/m 0 min 0 min 0 W/m 8,4 km/h (2 Bft) 97,87 %
06.11.2016 00:52 5,8 C 5,0 C 3,9 C 94 % 15 lf 999,2 hPa 0,0 l/m 0 min 0 min 0 W/m 8,4 km/h (2 Bft) 100,00 %
06.11.2016 00:54 5,7 C 5,0 C 3,3 C 94 % 15 lf 999,2 hPa 0,0 l/m 0 min 0 min 0 W/m 10,5 km/h (2 Bft) 97,87 %
06.11.2016 00:56 5,7 C 5,0 C 3,3 C 94 % 15 lf 999,2 hPa 0,0 l/m 0 min 0 min 0 W/m 6,3 km/h (2 Bft) 95,74 %
06.11.2016 00:58 5,7 C 5,0 C 3,3 C 94 % 15 lf 999,2 hPa 0,0 l/m 0 min 0 min 0 W/m 6,3 km/h (2 Bft) 97,83 %
06.11.2016 01:00 5,7 C 5,0 C 3,3 C 94 % 15 lf 999,2 hPa 0,0 l/m 0 min 0 min 0 W/m 10,5 km/h (2 Bft) 97,87 %
06.11.2016 01:02 5,7 C 5,0 C 3,3 C 94 % 15 lf 999,3 hPa 0,0 l/m 0 min 0 min 0 W/m 8,4 km/h (2 Bft) 95,74 %
06.11.2016 01:04 5,6 C 5,0 C 3,3 C 94 % 15 lf 999,2 hPa 0,0 l/m 0 min 0 min 0 W/m 14,6 km/h (3 Bft) 95,74 %
06.11.2016 01:06 5,6 C 5,0 C 3,3 C 94 % 15 lf 999,2 hPa 0,0 l/m 0 min 0 min 0 W/m 10,5 km/h (2 Bft) 93,62 %
06.11.2016 01:08 5,6 C 5,0 C 3,3 C 94 % 15 lf 999,2 hPa 0,0 l/m 0 min 0 min 0 W/m 14,6 km/h (3 Bft) 93,48 %
06.11.2016 01:10 5,6 C 5,0 C 3,3 C 94 % 15 lf 999,2 hPa 0,0 l/m 0 min 0 min 0 W/m 14,6 km/h (3 Bft) 93,62 %
06.11.2016 01:12 5,5 C 5,0 C 3,3 C 94 % 15 lf 999,2 hPa 0,0 l/m 0 min 0 min 0 W/m 12,6 km/h (3 Bft) 93,62 %
06.11.2016 01:14 5,5 C 5,0 C 3,3 C 94 % 15 lf 999,3 hPa 0,0 l/m 0 min 0 min 0 W/m 10,5 km/h (2 Bft) 95,74 %
06.11.2016 01:16 5,5 C 5,0 C 3,3 C 94 % 15 lf 999,4 hPa 0,0 l/m 0 min 0 min 0 W/m 16,7 km/h (3 Bft) 91,49 %
06.11.2016 01:18 5,4 C 5,0 C 3,3 C 94 % 15 lf 999,5 hPa 0,0 l/m 0 min 0 min 0 W/m 14,6 km/h (3 Bft) 93,62 %
06.11.2016 01:20 5,4 C 4,4 C 3,3 C 94 % 15 lf 999,5 hPa 0,0 l/m 0 min 0 min 0 W/m 12,6 km/h (3 Bft) 95,65 %
06.11.2016 01:22 5,4 C 4,4 C 3,3 C 94 % 15 lf 999,4 hPa 0,0 l/m 0 min 0 min 0 W/m 12,6 km/h (3 Bft) 95,74 %
06.11.2016 01:24 5,4 C 4,4 C 3,3 C 94 % 15 lf 999,4 hPa 0,0 l/m 0 min 0 min 0 W/m 10,5 km/h (2 Bft) 93,62 %
06.11.2016 01:26 5,3 C 4,4 C 2,8 C 94 % 15 lf 999,4 hPa 0,0 l/m 0 min 0 min 0 W/m 14,6 km/h (3 Bft) 95,74 %
06.11.2016 01:28 5,3 C 4,4 C 3,3 C 94 % 15 lf 999,3 hPa 0,0 l/m 0 min 0 min 0 W/m 12,6 km/h (3 Bft) 95,74 %
06.11.2016 01:30 5,3 C 4,4 C 2,8 C 94 % 15 lf 999,3 hPa 0,0 l/m 0 min 0 min 2 W/m 12,6 km/h (3 Bft) 97,87 %
06.11.2016 01:32 5,2 C 4,4 C 2,8 C 94 % 15 lf 999,3 hPa 0,0 l/m 0 min 0 min 0 W/m 10,5 km/h (2 Bft) 96,23 %
06.11.2016 01:34 5,2 C 4,4 C 2,8 C 94 % 15 lf 999,3 hPa 0,0 l/m 0 min 0 min 2 W/m 14,6 km/h (3 Bft) 91,49 %
06.11.2016 01:36 5,2 C 4,4 C 3,3 C 94 % 15 lf 999,3 hPa 0,0 l/m 0 min 0 min 4 W/m 18,8 km/h (3 Bft) 97,87 %
06.11.2016 01:38 5,2 C 4,4 C 3,3 C 94 % 15 lf 999,3 hPa 0,0 l/m 0 min 0 min 5 W/m 14,6 km/h (3 Bft) 95,65 %
06.11.2016 01:40 5,2 C 4,4 C 2,8 C 94 % 15 lf 999,3 hPa 0,0 l/m 0 min 0 min 5 W/m 14,6 km/h (3 Bft) 97,87 %
06.11.2016 01:42 5,1 C 4,4 C 2,8 C 94 % 15 lf 999,2 hPa 0,0 l/m 0 min 0 min 4 W/m 10,5 km/h (2 Bft) 96,00 %
06.11.2016 01:44 5,1 C 4,4 C 2,8 C 95 % 15 lf 999,3 hPa 0,0 l/m 0 min 2 min 0 W/m 14,6 km/h (3 Bft) 97,87 %
06.11.2016 01:46 5,1 C 4,4 C 2,8 C 95 % 15 lf 999,3 hPa 0,0 l/m 0 min 0 min 0 W/m 12,6 km/h (3 Bft) 100,00 %
06.11.2016 01:48 5,1 C 4,4 C 2,8 C 95 % 15 lf 999,4 hPa 0,0 l/m 0 min 0 min 0 W/m 10,5 km/h (2 Bft) 100,00 %
06.11.2016 01:50 5,1 C 4,4 C 2,8 C 95 % 15 lf 999,5 hPa 0,0 l/m 0 min 0 min 0 W/m 10,5 km/h (2 Bft) 95,65 %
06.11.2016 01:52 5,1 C 4,4 C 2,8 C 95 % 15 lf 999,5 hPa 0,0 l/m 0 min 0 min 0 W/m 10,5 km/h (2 Bft) 97,87 %
06.11.2016 01:54 5,0 C 4,4 C 2,8 C 95 % 15 lf 999,4 hPa 0,0 l/m 0 min 0 min 5 W/m 12,6 km/h (3 Bft) 97,87 %
06.11.2016 01:56 5,0 C 4,4 C 2,8 C 95 % 15 lf 999,5 hPa 0,0 l/m 0 min 0 min 0 W/m 12,6 km/h (3 Bft) 97,87 %
06.11.2016 01:58 5,0 C 4,4 C 2,8 C 95 % 15 lf 999,5 hPa 0,0 l/m 0 min 0 min 0 W/m 10,5 km/h (2 Bft) 95,74 %
06.11.2016 02:00 4,9 C 4,4 C 2,8 C 95 % 15 lf 999,5 hPa 0,0 l/m 0 min 0 min 0 W/m 12,6 km/h (3 Bft) 100,00 %
06.11.2016 02:02 4,9 C 4,4 C 2,8 C 95 % 15 lf 999,5 hPa 0,0 l/m 0 min 0 min 0 W/m 14,6 km/h (3 Bft) 97,92 %
06.11.2016 02:04 4,9 C 4,4 C 2,8 C 95 % 15 lf 999,5 hPa 0,0 l/m 0 min 0 min 0 W/m 12,6 km/h (3 Bft) 97,87 %
06.11.2016 02:06 4,9 C 4,4 C 2,8 C 95 % 15 lf 999,5 hPa 0,0 l/m 0 min 0 min 0 W/m 12,6 km/h (3 Bft) 100,00 %
06.11.2016 02:08 4,9 C 4,4 C 2,8 C 95 % 15 lf 999,4 hPa 0,0 l/m 0 min 0 min 0 W/m 12,6 km/h (3 Bft) 100,00 %
06.11.2016 02:10 4,9 C 4,4 C 2,8 C 95 % 15 lf 999,5 hPa 0,0 l/m 0 min 0 min 0 W/m 12,6 km/h (3 Bft) 95,74 %
06.11.2016 02:12 4,9 C 4,4 C 2,8 C 95 % 15 lf 999,5 hPa 0,0 l/m 0 min 0 min 0 W/m 12,6 km/h (3 Bft) 100,00 %
06.11.2016 02:14 4,8 C 4,4 C 2,8 C 95 % 15 lf 999,4 hPa 0,0 l/m 0 min 0 min 0 W/m 18,8 km/h (3 Bft) 93,62 %
06.11.2016 02:16 4,8 C 4,4 C 2,8 C 95 % 15 lf 999,4 hPa 0,0 l/m 0 min 0 min 0 W/m 16,7 km/h (3 Bft) 97,83 %
06.11.2016 02:18 4,8 C 4,4 C 2,8 C 95 % 15 lf 999,4 hPa 0,0 l/m 0 min 0 min 0 W/m 14,6 km/h (3 Bft) 97,87 %
06.11.2016 02:20 4,8 C 4,4 C 2,8 C 95 % 15 lf 999,4 hPa 0,0 l/m 0 min 0 min 0 W/m 14,6 km/h (3 Bft) 95,74 %
06.11.2016 02:22 4,8 C 4,4 C 2,8 C 95 % 15 lf 999,3 hPa 0,0 l/m 0 min 2 min 0 W/m 23,0 km/h (4 Bft) 95,74 %
06.11.2016 02:24 4,9 C 4,4 C 3,3 C 95 % 15 lf 999,3 hPa 0,0 l/m 0 min 2 min 0 W/m 16,7 km/h (3 Bft) 97,87 %
06.11.2016 02:26 4,9 C 4,4 C 3,3 C 95 % 15 lf 999,3 hPa 0,0 l/m 0 min 0 min 0 W/m 18,8 km/h (3 Bft) 95,65 %
06.11.2016 02:28 4,9 C 4,4 C 3,3 C 95 % 15 lf 999,3 hPa 0,0 l/m 0 min 2 min 0 W/m 16,7 km/h (3 Bft) 95,74 %
06.11.2016 02:30 4,9 C 4,4 C 3,3 C 95 % 15 lf 999,4 hPa 0,0 l/m 0 min 0 min 0 W/m 16,7 km/h (3 Bft) 97,87 %
06.11.2016 02:32 4,9 C 4,4 C 2,8 C 95 % 15 lf 999,3 hPa 0,0 l/m 0 min 0 min 0 W/m 16,7 km/h (3 Bft) 95,74 %
06.11.2016 02:34 4,9 C 4,4 C 2,8 C 95 % 15 lf 999,3 hPa 0,0 l/m 0 min 0 min 0 W/m 14,6 km/h (3 Bft) 93,62 %
06.11.2016 02:36 4,9 C 4,4 C 2,8 C 95 % 15 lf 999,3 hPa 0,0 l/m 0 min 0 min 0 W/m 16,7 km/h (3 Bft) 95,74 %
06.11.2016 02:38 4,9 C 4,4 C 2,8 C 95 % 15 lf 999,3 hPa 0,0 l/m 0 min 0 min 0 W/m 14,6 km/h (3 Bft) 97,87 %
06.11.2016 02:40 4,9 C 4,4 C 2,8 C 95 % 15 lf 999,3 hPa 0,0 l/m 0 min 0 min 0 W/m 18,8 km/h (3 Bft) 95,74 %
06.11.2016 02:42 4,9 C 4,4 C 2,8 C 95 % 15 lf 999,3 hPa 0,0 l/m 0 min 0 min 0 W/m 18,8 km/h (3 Bft) 95,74 %
06.11.2016 02:44 4,9 C 4,4 C 2,8 C 96 % 15 lf 999,4 hPa 0,0 l/m 0 min 0 min 0 W/m 16,7 km/h (3 Bft) 95,65 %
06.11.2016 02:46 4,9 C 4,4 C 2,8 C 96 % 15 lf 999,3 hPa 0,0 l/m 0 min 0 min 0 W/m 14,6 km/h (3 Bft) 93,62 %
06.11.2016 02:48 4,9 C 4,4 C 2,8 C 96 % 15 lf 999,3 hPa 0,0 l/m 0 min 0 min 0 W/m 14,6 km/h (3 Bft) 91,49 %
06.11.2016 02:50 4,9 C 4,4 C 2,8 C 96 % 15 lf 999,2 hPa 0,0 l/m 0 min 0 min 0 W/m 16,7 km/h (3 Bft) 95,74 %
06.11.2016 02:52 4,9 C 4,4 C 2,8 C 96 % 15 lf 999,2 hPa 0,0 l/m 0 min 0 min 0 W/m 16,7 km/h (3 Bft) 93,62 %
06.11.2016 02:54 4,9 C 4,4 C 2,8 C 96 % 15 lf 999,2 hPa 0,0 l/m 0 min 0 min 0 W/m 16,7 km/h (3 Bft) 95,65 %
06.11.2016 02:56 4,9 C 4,4 C 2,8 C 96 % 15 lf 999,2 hPa 0,0 l/m 0 min 0 min 0 W/m 18,8 km/h (3 Bft) 91,49 %
06.11.2016 02:58 4,9 C 4,4 C 2,8 C 96 % 15 lf 999,1 hPa 0,0 l/m 0 min 0 min 0 W/m 20,9 km/h (4 Bft) 97,87 %
06.11.2016 03:00 4,8 C 4,4 C 2,8 C 96 % 15 lf 999,1 hPa 0,0 l/m 0 min 0 min 0 W/m 14,6 km/h (3 Bft) 97,87 %
06.11.2016 03:02 4,9 C 4,4 C 2,8 C 96 % 15 lf 999,1 hPa 0,0 l/m 0 min 0 min 0 W/m 16,7 km/h (3 Bft) 97,87 %
06.11.2016 03:04 4,9 C 4,4 C 2,8 C 96 % 15 lf 999,1 hPa 0,0 l/m 0 min 0 min 0 W/m 14,6 km/h (3 Bft) 93,62 %
06.11.2016 03:06 4,9 C 4,4 C 2,8 C 96 % 15 lf 999,1 hPa 0,0 l/m 0 min 0 min 0 W/m 14,6 km/h (3 Bft) 95,65 %
06.11.2016 03:08 4,8 C 4,4 C 2,8 C 96 % 15 lf 999,1 hPa 0,0 l/m 0 min 0 min 0 W/m 14,6 km/h (3 Bft) 95,74 %
06.11.2016 03:10 4,8 C 4,4 C 2,8 C 96 % 15 lf 999,1 hPa 0,0 l/m 0 min 0 min 0 W/m 18,8 km/h (3 Bft) 95,74 %
06.11.2016 03:12 4,8 C 4,4 C 2,8 C 96 % 15 lf 999,0 hPa 0,0 l/m 0 min 0 min 0 W/m 23,0 km/h (4 Bft) 91,49 %
06.11.2016 03:14 4,8 C 4,4 C 2,8 C 96 % 15 lf 999,1 hPa 0,0 l/m 0 min 2 min 0 W/m 14,6 km/h (3 Bft) 93,62 %
06.11.2016 03:16 4,8 C 4,4 C 2,8 C 96 % 15 lf 999,0 hPa 0,0 l/m 0 min 0 min 0 W/m 16,7 km/h (3 Bft) 97,83 %
06.11.2016 03:18 4,8 C 4,4 C 2,8 C 96 % 15 lf 999,0 hPa 0,0 l/m 0 min 0 min 0 W/m 20,9 km/h (4 Bft) 97,87 %
06.11.2016 03:20 4,8 C 4,4 C 2,8 C 96 % 15 lf 999,1 hPa 0,0 l/m 0 min 0 min 0 W/m 16,7 km/h (3 Bft) 93,62 %
06.11.2016 03:22 4,8 C 4,4 C 2,8 C 96 % 15 lf 999,0 hPa 0,0 l/m 0 min 0 min 0 W/m 16,7 km/h (3 Bft) 95,74 %
06.11.2016 03:24 4,8 C 4,4 C 2,8 C 96 % 15 lf 999,0 hPa 0,0 l/m 0 min 2 min 0 W/m 20,9 km/h (4 Bft) 95,74 %
06.11.2016 03:26 4,8 C 4,4 C 2,8 C 96 % 15 lf 999,0 hPa 0,0 l/m 0 min 0 min 0 W/m 16,7 km/h (3 Bft) 97,87 %
06.11.2016 03:28 4,8 C 4,4 C 2,8 C 96 % 15 lf 999,0 hPa 0,0 l/m 0 min 2 min 0 W/m 16,7 km/h (3 Bft) 89,13 %
06.11.2016 03:30 4,8 C 4,4 C 2,8 C 96 % 15 lf 999,0 hPa 0,0 l/m 0 min 0 min 0 W/m 16,7 km/h (3 Bft) 97,87 %
06.11.2016 03:32 4,8 C 4,4 C 2,8 C 96 % 15 lf 999,0 hPa 0,0 l/m 0 min 2 min 0 W/m 20,9 km/h (4 Bft) 93,62 %
06.11.2016 03:34 4,8 C 4,4 C 2,8 C 96 % 15 lf 999,0 hPa 0,0 l/m 0 min 0 min 0 W/m 18,8 km/h (3 Bft) 95,74 %
06.11.2016 03:36 4,8 C 4,4 C 2,8 C 96 % 15 lf 998,9 hPa 0,0 l/m 0 min 0 min 0 W/m 16,7 km/h (3 Bft) 93,62 %
06.11.2016 03:38 4,7 C 4,4 C 2,8 C 96 % 15 lf 999,0 hPa 0,0 l/m 0 min 0 min 0 W/m 20,9 km/h (4 Bft) 93,62 %
06.11.2016 03:40 4,7 C 4,4 C 2,8 C 96 % 15 lf 998,9 hPa 0,0 l/m 0 min 0 min 0 W/m 23,0 km/h (4 Bft) 95,65 %
06.11.2016 03:42 4,7 C 4,4 C 2,8 C 96 % 15 lf 998,9 hPa 0,0 l/m 0 min 2 min 0 W/m 16,7 km/h (3 Bft) 89,36 %
06.11.2016 03:44 4,7 C 4,4 C 2,8 C 96 % 15 lf 998,9 hPa 0,0 l/m 0 min 0 min 0 W/m 18,8 km/h (3 Bft) 93,62 %
06.11.2016 03:46 4,7 C 4,4 C 2,8 C 96 % 15 lf 998,9 hPa 0,0 l/m 0 min 0 min 0 W/m 18,8 km/h (3 Bft) 95,74 %
06.11.2016 03:48 4,7 C 4,4 C 2,8 C 96 % 15 lf 998,9 hPa 0,0 l/m 0 min 0 min 0 W/m 25,1 km/h (4 Bft) 93,62 %
06.11.2016 03:50 4,7 C 4,4 C 2,8 C 96 % 15 lf 998,8 hPa 0,0 l/m 0 min 0 min 0 W/m 25,1 km/h (4 Bft) 95,74 %
06.11.2016 03:52 4,7 C 4,4 C 2,8 C 96 % 15 lf 998,8 hPa 0,0 l/m 0 min 0 min 0 W/m 18,8 km/h (3 Bft) 93,48 %
06.11.2016 03:54 4,7 C 4,4 C 2,8 C 96 % 15 lf 998,8 hPa 0,0 l/m 0 min 0 min 0 W/m 20,9 km/h (4 Bft) 95,74 %
06.11.2016 03:56 4,7 C 4,4 C 2,8 C 96 % 15 lf 998,8 hPa 0,0 l/m 0 min 0 min 0 W/m 20,9 km/h (4 Bft) 95,74 %
06.11.2016 03:58 4,7 C 4,4 C 2,8 C 96 % 15 lf 998,8 hPa 0,0 l/m 0 min 2 min 0 W/m 18,8 km/h (3 Bft) 91,49 %
06.11.2016 04:00 4,7 C 4,4 C 2,8 C 96 % 15 lf 998,9 hPa 0,0 l/m 0 min 0 min 0 W/m 20,9 km/h (4 Bft) 95,74 %
06.11.2016 04:02 4,7 C 4,4 C 2,8 C 96 % 15 lf 998,9 hPa 0,0 l/m 0 min 0 min 0 W/m 18,8 km/h (3 Bft) 96,30 %
06.11.2016 04:04 4,7 C 4,4 C 2,8 C 96 % 15 lf 998,9 hPa 0,0 l/m 0 min 0 min 0 W/m 14,6 km/h (3 Bft) 95,74 %
06.11.2016 04:06 4,6 C 4,4 C 2,8 C 96 % 15 lf 998,9 hPa 0,0 l/m 0 min 0 min 0 W/m 14,6 km/h (3 Bft) 91,49 %
06.11.2016 04:08 4,6 C 4,4 C 2,8 C 96 % 15 lf 998,9 hPa 0,0 l/m 0 min 2 min 0 W/m 20,9 km/h (4 Bft) 93,62 %
06.11.2016 04:10 4,6 C 4,4 C 2,8 C 96 % 15 lf 998,8 hPa 0,0 l/m 0 min 0 min 0 W/m 18,8 km/h (3 Bft) 91,30 %
06.11.2016 04:12 4,6 C 4,4 C 2,8 C 96 % 15 lf 998,8 hPa 0,0 l/m 0 min 0 min 0 W/m 18,8 km/h (3 Bft) 93,62 %
06.11.2016 04:14 4,6 C 4,4 C 2,8 C 96 % 15 lf 998,8 hPa 0,0 l/m 0 min 0 min 0 W/m 20,9 km/h (4 Bft) 95,74 %
06.11.2016 04:16 4,6 C 4,4 C 2,8 C 96 % 15 lf 998,9 hPa 0,0 l/m 0 min 2 min 0 W/m 20,9 km/h (4 Bft) 95,74 %
06.11.2016 04:18 4,6 C 4,4 C 2,8 C 96 % 15 lf 998,9 hPa 0,0 l/m 0 min 0 min 0 W/m 18,8 km/h (3 Bft) 93,62 %
06.11.2016 04:20 4,6 C 4,4 C 2,8 C 96 % 15 lf 998,9 hPa 0,0 l/m 0 min 2 min 0 W/m 20,9 km/h (4 Bft) 97,87 %
06.11.2016 04:22 4,6 C 4,4 C 2,8 C 96 % 15 lf 998,9 hPa 0,0 l/m 0 min 2 min 0 W/m 23,0 km/h (4 Bft) 97,83 %
06.11.2016 04:24 4,6 C 4,4 C 2,8 C 96 % 15 lf 998,8 hPa 0,0 l/m 0 min 0 min 0 W/m 20,9 km/h (4 Bft) 95,74 %
06.11.2016 04:26 4,6 C 4,4 C 2,8 C 96 % 15 lf 998,9 hPa 0,0 l/m 0 min 0 min 0 W/m 25,1 km/h (4 Bft) 93,62 %
06.11.2016 04:28 4,6 C 4,4 C 2,8 C 96 % 14 lf 998,9 hPa 0,0 l/m 0 min 0 min 0 W/m 27,2 km/h (4 Bft) 97,87 %
06.11.2016 04:30 4,6 C 4,4 C 2,8 C 96 % 14 lf 998,8 hPa 0,0 l/m 0 min 2 min 0 W/m 20,9 km/h (4 Bft) 97,87 %
06.11.2016 04:32 4,5 C 4,4 C 2,8 C 96 % 14 lf 998,8 hPa 0,0 l/m 0 min 2 min 0 W/m 18,8 km/h (3 Bft) 100,00 %
06.11.2016 04:34 4,5 C 4,4 C 2,8 C 96 % 14 lf 998,8 hPa 0,0 l/m 0 min 2 min 0 W/m 23,0 km/h (4 Bft) 95,74 %
06.11.2016 04:36 4,5 C 4,4 C 2,8 C 96 % 14 lf 998,8 hPa 0,0 l/m 0 min 2 min 0 W/m 25,1 km/h (4 Bft) 97,87 %
06.11.2016 04:38 4,5 C 4,4 C 2,8 C 96 % 13 lf 998,9 hPa 0,0 l/m 0 min 0 min 0 W/m 16,7 km/h (3 Bft) 97,87 %
06.11.2016 04:40 4,5 C 4,4 C 2,8 C 96 % 13 lf 998,8 hPa 0,0 l/m 0 min 2 min 0 W/m 20,9 km/h (4 Bft) 97,87 %
06.11.2016 04:42 4,5 C 4,4 C 2,8 C 96 % 12 lf 998,8 hPa 0,0 l/m 0 min 2 min 0 W/m 18,8 km/h (3 Bft) 97,87 %
06.11.2016 04:44 4,5 C 4,4 C 2,8 C 96 % 12 lf 998,8 hPa 0,0 l/m 0 min 2 min 0 W/m 20,9 km/h (4 Bft) 95,65 %
06.11.2016 04:46 4,5 C 4,4 C 2,8 C 96 % 12 lf 998,8 hPa 0,0 l/m 0 min 0 min 0 W/m 20,9 km/h (4 Bft) 93,62 %
06.11.2016 04:48 4,5 C 4,4 C 2,8 C 96 % 12 lf 998,8 hPa 0,0 l/m 0 min 0 min 0 W/m 18,8 km/h (3 Bft) 97,87 %
06.11.2016 04:50 4,4 C 4,4 C 2,2 C 96 % 11 lf 998,8 hPa 0,0 l/m 0 min 0 min 0 W/m 23,0 km/h (4 Bft) 95,74 %
06.11.2016 04:52 4,4 C 4,4 C 2,8 C 96 % 11 lf 998,8 hPa 0,0 l/m 0 min 2 min 0 W/m 18,8 km/h (3 Bft) 95,74 %
06.11.2016 04:54 4,4 C 4,4 C 2,2 C 96 % 10 lf 998,8 hPa 0,0 l/m 0 min 0 min 0 W/m 25,1 km/h (4 Bft) 97,87 %
06.11.2016 04:56 4,4 C 3,9 C 2,2 C 96 % 10 lf 998,8 hPa 0,0 l/m 0 min 0 min 0 W/m 14,6 km/h (3 Bft) 95,65 %
06.11.2016 04:58 4,4 C 3,9 C 2,2 C 96 % 9 lf 998,8 hPa 0,0 l/m 0 min 0 min 0 W/m 18,8 km/h (3 Bft) 95,74 %
06.11.2016 05:00 4,4 C 3,9 C 2,2 C 96 % 9 lf 998,8 hPa 0,0 l/m 0 min 0 min 0 W/m 18,8 km/h (3 Bft) 93,62 %
06.11.2016 05:02 4,4 C 3,9 C 2,2 C 96 % 8 lf 998,8 hPa 0,0 l/m 0 min 0 min 0 W/m 20,9 km/h (4 Bft) 95,83 %
06.11.2016 05:04 4,4 C 3,9 C 2,2 C 96 % 7 lf 998,8 hPa 0,0 l/m 0 min 0 min 0 W/m 16,7 km/h (3 Bft) 97,87 %
06.11.2016 05:06 4,3 C 3,9 C 2,2 C 96 % 7 lf 998,9 hPa 0,0 l/m 0 min 0 min 0 W/m 18,8 km/h (3 Bft) 100,00 %
06.11.2016 05:08 4,3 C 3,9 C 2,2 C 96 % 6 lf 998,9 hPa 0,0 l/m 0 min 0 min 0 W/m 12,6 km/h (3 Bft) 100,00 %
06.11.2016 05:10 4,3 C 3,9 C 2,2 C 96 % 5 lf 998,9 hPa 0,0 l/m 0 min 0 min 0 W/m 16,7 km/h (3 Bft) 100,00 %
06.11.2016 05:12 4,3 C 3,9 C 2,2 C 96 % 4 lf 998,9 hPa 0,0 l/m 0 min 0 min 0 W/m 20,9 km/h (4 Bft) 97,37 %
06.11.2016 05:14 4,3 C 3,9 C 2,8 C 96 % 4 lf 998,8 hPa 0,0 l/m 0 min 0 min 0 W/m 20,9 km/h (4 Bft) 95,74 %
06.11.2016 05:16 4,3 C 3,9 C 2,8 C 96 % 3 lf 998,9 hPa 0,0 l/m 0 min 0 min 0 W/m 16,7 km/h (3 Bft) 95,74 %
06.11.2016 05:18 4,3 C 4,4 C 2,8 C 96 % 3 lf 998,8 hPa 0,0 l/m 0 min 0 min 0 W/m 12,6 km/h (3 Bft) 91,49 %
06.11.2016 05:20 4,3 C 4,4 C 2,8 C 96 % 2 lf 998,9 hPa 0,0 l/m 0 min 0 min 0 W/m 18,8 km/h (3 Bft) 95,74 %
06.11.2016 05:22 4,3 C 4,4 C 2,8 C 96 % 2 lf 998,8 hPa 0,0 l/m 0 min 0 min 0 W/m 16,7 km/h (3 Bft) 96,36 %
06.11.2016 05:24 4,3 C 4,4 C 2,8 C 96 % 1 lf 998,8 hPa 0,0 l/m 0 min 0 min 0 W/m 18,8 km/h (3 Bft) 97,87 %
06.11.2016 05:26 4,3 C 4,4 C 2,8 C 96 % 1 lf 998,8 hPa 0,0 l/m 0 min 0 min 0 W/m 14,6 km/h (3 Bft) 95,74 %
06.11.2016 05:28 4,3 C 4,4 C 2,8 C 96 % 1 lf 998,9 hPa 0,0 l/m 0 min 0 min 0 W/m 18,8 km/h (3 Bft) 95,74 %
06.11.2016 05:30 4,3 C 4,4 C 2,8 C 96 % 0 lf 998,8 hPa 0,0 l/m 0 min 0 min 0 W/m 23,0 km/h (4 Bft) 97,87 %
06.11.2016 05:32 4,4 C 4,4 C 2,8 C 96 % 0 lf 998,8 hPa 0,0 l/m 0 min 0 min 0 W/m 18,8 km/h (3 Bft) 97,87 %
06.11.2016 05:34 4,4 C 4,4 C 2,8 C 96 % 0 lf 998,9 hPa 0,0 l/m 0 min 0 min 0 W/m 25,1 km/h (4 Bft) 97,87 %
06.11.2016 05:36 4,4 C 4,4 C 2,8 C 96 % 0 lf 998,8 hPa 0,0 l/m 0 min 0 min 0 W/m 25,1 km/h (4 Bft) 95,74 %
06.11.2016 05:38 4,4 C 4,4 C 2,8 C 96 % 0 lf 998,8 hPa 0,0 l/m 0 min 0 min 0 W/m 18,8 km/h (3 Bft) 91,49 %
06.11.2016 05:40 4,4 C 4,4 C 2,8 C 96 % 0 lf 998,8 hPa 0,0 l/m 0 min 0 min 0 W/m 20,9 km/h (4 Bft) 97,87 %
06.11.2016 05:42 4,4 C 4,4 C 2,8 C 96 % 0 lf 998,8 hPa 0,0 l/m 0 min 0 min 0 W/m 16,7 km/h (3 Bft) 95,65 %
06.11.2016 05:44 4,4 C 4,4 C 2,8 C 96 % 0 lf 998,8 hPa 0,0 l/m 0 min 0 min 0 W/m 25,1 km/h (4 Bft) 95,74 %
06.11.2016 05:46 4,4 C 4,4 C 2,8 C 96 % 0 lf 998,8 hPa 0,0 l/m 0 min 0 min 0 W/m 18,8 km/h (3 Bft) 97,87 %
06.11.2016 05:48 4,4 C 4,4 C 2,8 C 96 % 0 lf 998,7 hPa 0,0 l/m 0 min 0 min 0 W/m 27,2 km/h (4 Bft) 97,87 %
06.11.2016 05:50 4,4 C 4,4 C 2,8 C 96 % 0 lf 998,7 hPa 0,0 l/m 0 min 0 min 0 W/m 27,2 km/h (4 Bft) 97,87 %
06.11.2016 05:52 4,4 C 4,4 C 2,8 C 96 % 1 lf 998,7 hPa 0,0 l/m 0 min 0 min 0 W/m 25,1 km/h (4 Bft) 93,62 %
06.11.2016 05:54 4,3 C 4,4 C 2,8 C 96 % 1 lf 998,7 hPa 0,0 l/m 0 min 0 min 0 W/m 31,4 km/h (5 Bft) 95,65 %
06.11.2016 05:56 4,3 C 4,4 C 2,8 C 96 % 1 lf 998,7 hPa 0,0 l/m 0 min 0 min 0 W/m 29,3 km/h (5 Bft) 91,49 %
06.11.2016 05:58 4,3 C 4,4 C 2,2 C 96 % 1 lf 998,7 hPa 0,0 l/m 0 min 0 min 0 W/m 31,4 km/h (5 Bft) 97,87 %
06.11.2016 06:00 4,3 C 4,4 C 2,8 C 95 % 1 lf 998,6 hPa 0,0 l/m 0 min 0 min 0 W/m 31,4 km/h (5 Bft) 93,62 %
06.11.2016 06:02 4,3 C 4,4 C 2,8 C 95 % 0 lf 998,6 hPa 0,0 l/m 0 min 2 min 0 W/m 39,7 km/h (6 Bft) 97,92 %
06.11.2016 06:06 4,3 C 4,4 C 2,2 C 95 % 0 lf 998,5 hPa 0,0 l/m 0 min 0 min 0 W/m 25,1 km/h (4 Bft) 97,85 %
06.11.2016 06:08 4,3 C 3,9 C 2,2 C 95 % 1 lf 998,5 hPa 0,0 l/m 0 min 0 min 0 W/m 25,1 km/h (4 Bft) 95,74 %
06.11.2016 06:10 4,3 C 4,4 C 2,2 C 95 % 1 lf 998,5 hPa 0,0 l/m 0 min 0 min 0 W/m 25,1 km/h (4 Bft) 93,62 %
06.11.2016 06:12 4,3 C 3,9 C 2,2 C 95 % 1 lf 998,6 hPa 0,0 l/m 0 min 0 min 0 W/m 29,3 km/h (5 Bft) 95,74 %
06.11.2016 06:14 4,3 C 3,9 C 2,2 C 95 % 1 lf 998,6 hPa 0,0 l/m 0 min 0 min 0 W/m 18,8 km/h (3 Bft) 97,87 %
06.11.2016 06:16 4,3 C 3,9 C 2,2 C 95 % 1 lf 998,6 hPa 0,0 l/m 0 min 0 min 0 W/m 25,1 km/h (4 Bft) 95,65 %
06.11.2016 06:18 4,3 C 3,9 C 2,2 C 95 % 1 lf 998,6 hPa 0,0 l/m 0 min 0 min 0 W/m 25,1 km/h (4 Bft) 97,87 %
06.11.2016 06:20 4,2 C 3,9 C 2,2 C 95 % 1 lf 998,6 hPa 0,0 l/m 0 min 0 min 0 W/m 18,8 km/h (3 Bft) 93,62 %
06.11.2016 06:22 4,3 C 4,4 C 2,2 C 95 % 1 lf 998,6 hPa 0,0 l/m 0 min 0 min 0 W/m 23,0 km/h (4 Bft) 95,74 %
06.11.2016 06:24 4,2 C 3,9 C 2,2 C 95 % 1 lf 998,6 hPa 0,0 l/m 0 min 0 min 0 W/m 20,9 km/h (4 Bft) 93,62 %
06.11.2016 06:26 4,2 C 3,9 C 2,2 C 95 % 1 lf 998,6 hPa 0,0 l/m 0 min 0 min 0 W/m 23,0 km/h (4 Bft) 95,74 %
06.11.2016 06:28 4,2 C 3,9 C 2,2 C 95 % 1 lf 998,6 hPa 0,0 l/m 0 min 0 min 0 W/m 20,9 km/h (4 Bft) 93,48 %
06.11.2016 06:30 4,2 C 3,9 C 2,2 C 95 % 1 lf 998,7 hPa 0,0 l/m 0 min 0 min 0 W/m 20,9 km/h (4 Bft) 95,74 %
06.11.2016 06:32 4,2 C 3,9 C 2,2 C 95 % 1 lf 998,7 hPa 0,0 l/m 0 min 0 min 0 W/m 20,9 km/h (4 Bft) 94,44 %
06.11.2016 06:34 4,2 C 3,9 C 2,2 C 95 % 1 lf 998,7 hPa 0,0 l/m 0 min 0 min 0 W/m 20,9 km/h (4 Bft) 95,74 %
06.11.2016 06:36 4,2 C 4,4 C 2,2 C 95 % 0 lf 998,7 hPa 0,0 l/m 0 min 2 min 0 W/m 27,2 km/h (4 Bft) 92,00 %
06.11.2016 06:38 4,3 C 4,4 C 2,2 C 95 % 0 lf 998,7 hPa 0,0 l/m 0 min 0 min 0 W/m 25,1 km/h (4 Bft) 93,62 %
06.11.2016 06:40 4,2 C 4,4 C 2,2 C 95 % 1 lf 998,7 hPa 0,0 l/m 0 min 0 min 0 W/m 18,8 km/h (3 Bft) 95,74 %
06.11.2016 06:42 4,2 C 3,9 C 2,2 C 95 % 1 lf 998,7 hPa 0,0 l/m 0 min 0 min 0 W/m 16,7 km/h (3 Bft) 93,62 %
06.11.2016 06:44 4,2 C 4,4 C 2,2 C 95 % 1 lf 998,7 hPa 0,0 l/m 0 min 0 min 0 W/m 27,2 km/h (4 Bft) 95,74 %
06.11.2016 06:46 4,2 C 3,9 C 2,2 C 95 % 1 lf 998,7 hPa 0,0 l/m 0 min 0 min 0 W/m 18,8 km/h (3 Bft) 97,87 %
06.11.2016 06:48 4,2 C 3,9 C 2,2 C 95 % 1 lf 998,8 hPa 0,0 l/m 0 min 2 min 0 W/m 23,0 km/h (4 Bft) 95,74 %
06.11.2016 06:50 4,2 C 4,4 C 2,2 C 95 % 1 lf 998,7 hPa 0,0 l/m 0 min 0 min 0 W/m 18,8 km/h (3 Bft) 95,74 %
06.11.2016 06:52 4,2 C 4,4 C 2,2 C 95 % 0 lf 998,7 hPa 0,0 l/m 0 min 0 min 0 W/m 16,7 km/h (3 Bft) 95,74 %
06.11.2016 06:54 4,2 C 4,4 C 2,8 C 95 % 0 lf 998,7 hPa 0,0 l/m 0 min 0 min 0 W/m 23,0 km/h (4 Bft) 95,65 %
06.11.2016 06:56 4,2 C 4,4 C 2,8 C 95 % 0 lf 998,8 hPa 0,0 l/m 0 min 0 min 0 W/m 20,9 km/h (4 Bft) 100,00 %
06.11.2016 06:58 4,2 C 4,4 C 2,8 C 95 % 0 lf 998,7 hPa 0,0 l/m 0 min 0 min 0 W/m 25,1 km/h (4 Bft) 100,00 %
06.11.2016 07:00 4,2 C 4,4 C 2,8 C 95 % 0 lf 998,7 hPa 0,0 l/m 0 min 0 min 0 W/m 23,0 km/h (4 Bft) 100,00 %
06.11.2016 07:02 4,2 C 4,4 C 2,8 C 95 % 0 lf 998,8 hPa 0,0 l/m 0 min 0 min 0 W/m 23,0 km/h (4 Bft) 97,92 %
06.11.2016 07:04 4,2 C 4,4 C 2,8 C 95 % 0 lf 998,7 hPa 0,0 l/m 0 min 0 min 0 W/m 25,1 km/h (4 Bft) 95,74 %
06.11.2016 07:06 4,2 C 4,4 C 2,2 C 95 % 0 lf 998,7 hPa 0,0 l/m 0 min 0 min 0 W/m 18,8 km/h (3 Bft) 97,83 %
06.11.2016 07:08 4,3 C 4,4 C 2,8 C 95 % 0 lf 998,7 hPa 0,0 l/m 0 min 0 min 0 W/m 23,0 km/h (4 Bft) 100,00 %
06.11.2016 07:10 4,2 C 4,4 C 2,8 C 95 % 0 lf 998,7 hPa 0,0 l/m 0 min 0 min 0 W/m 18,8 km/h (3 Bft) 100,00 %
06.11.2016 07:12 4,2 C 4,4 C 2,8 C 95 % 0 lf 998,7 hPa 0,0 l/m 0 min 0 min 0 W/m 20,9 km/h (4 Bft) 95,74 %
06.11.2016 07:14 4,2 C 4,4 C 2,8 C 95 % 0 lf 998,7 hPa 0,0 l/m 0 min 0 min 0 W/m 18,8 km/h (3 Bft) 97,87 %
06.11.2016 07:16 4,3 C 4,4 C 2,8 C 95 % 0 lf 998,7 hPa 0,0 l/m 0 min 0 min 0 W/m 20,9 km/h (4 Bft) 100,00 %
06.11.2016 07:18 4,3 C 4,4 C 2,8 C 95 % 0 lf 998,8 hPa 0,0 l/m 0 min 0 min 0 W/m 12,6 km/h (3 Bft) 100,00 %
06.11.2016 07:20 4,3 C 4,4 C 2,8 C 95 % 0 lf 998,8 hPa 0,0 l/m 0 min 0 min 0 W/m 20,9 km/h (4 Bft) 100,00 %
06.11.2016 07:22 4,3 C 4,4 C 2,8 C 95 % 0 lf 998,8 hPa 0,0 l/m 0 min 0 min 11 W/m 23,0 km/h (4 Bft) 97,87 %
06.11.2016 07:24 4,3 C 4,4 C 2,8 C 95 % 0 lf 998,8 hPa 0,0 l/m 0 min 0 min 11 W/m 18,8 km/h (3 Bft) 97,87 %
06.11.2016 07:26 4,3 C 4,4 C 2,8 C 95 % 0 lf 998,9 hPa 0,0 l/m 0 min 0 min 11 W/m 18,8 km/h (3 Bft) 100,00 %
06.11.2016 07:28 4,3 C 4,4 C 2,8 C 95 % 0 lf 998,9 hPa 0,0 l/m 0 min 0 min 12 W/m 18,8 km/h (3 Bft) 100,00 %
06.11.2016 07:30 4,3 C 4,4 C 2,8 C 95 % 0 lf 998,8 hPa 0,0 l/m 0 min 0 min 12 W/m 18,8 km/h (3 Bft) 100,00 %
06.11.2016 07:32 4,3 C 4,4 C 2,8 C 95 % 0 lf 998,9 hPa 0,0 l/m 0 min 0 min 12 W/m 18,8 km/h (3 Bft) 100,00 %
06.11.2016 07:34 4,3 C 4,4 C 2,8 C 95 % 0 lf 998,8 hPa 0,0 l/m 0 min 0 min 12 W/m 16,7 km/h (3 Bft) 97,92 %
06.11.2016 07:36 4,3 C 4,4 C 2,8 C 95 % 0 lf 998,9 hPa 0,0 l/m 0 min 0 min 12 W/m 27,2 km/h (4 Bft) 98,04 %
06.11.2016 07:38 4,3 C 4,4 C 2,8 C 95 % 0 lf 998,9 hPa 0,0 l/m 0 min 0 min 13 W/m 20,9 km/h (4 Bft) 97,22 %
06.11.2016 07:40 4,3 C 4,4 C 2,8 C 95 % 0 lf 999,0 hPa 0,0 l/m 0 min 0 min 14 W/m 23,0 km/h (4 Bft) 97,44 %
06.11.2016 07:42 4,3 C 4,4 C 2,8 C 95 % 0 lf 999,0 hPa 0,0 l/m 0 min 0 min 14 W/m 18,8 km/h (3 Bft) 95,92 %
06.11.2016 07:44 4,3 C 4,4 C 2,8 C 95 % 0 lf 999,0 hPa 0,0 l/m 0 min 0 min 15 W/m 23,0 km/h (4 Bft) 95,74 %
06.11.2016 07:46 4,3 C 4,4 C 3,3 C 95 % 0 lf 999,0 hPa 0,0 l/m 0 min 0 min 16 W/m 20,9 km/h (4 Bft) 93,62 %
06.11.2016 07:48 4,3 C 4,4 C 3,3 C 95 % 0 lf 999,0 hPa 0,0 l/m 0 min 0 min 17 W/m 14,6 km/h (3 Bft) 97,87 %
06.11.2016 07:50 4,4 C 4,4 C 3,3 C 95 % 0 lf 999,0 hPa 0,0 l/m 0 min 0 min 18 W/m 23,0 km/h (4 Bft) 97,87 %
06.11.2016 07:52 4,4 C 4,4 C 3,3 C 95 % 0 lf 999,0 hPa 0,0 l/m 2 min 0 min 20 W/m 18,8 km/h (3 Bft) 93,62 %
06.11.2016 07:54 4,4 C 4,4 C 3,3 C 95 % 0 lf 999,0 hPa 0,0 l/m 2 min 0 min 20 W/m 23,0 km/h (4 Bft) 97,87 %
06.11.2016 07:56 4,4 C 4,4 C 3,3 C 95 % 0 lf 999,0 hPa 0,0 l/m 2 min 0 min 19 W/m 20,9 km/h (4 Bft) 97,83 %
06.11.2016 07:58 4,4 C 4,4 C 2,8 C 95 % 0 lf 999,0 hPa 0,0 l/m 2 min 0 min 21 W/m 23,0 km/h (4 Bft) 93,62 %
06.11.2016 08:00 4,4 C 4,4 C 2,8 C 95 % 0 lf 999,0 hPa 0,0 l/m 2 min 0 min 23 W/m 23,0 km/h (4 Bft) 95,74 %
06.11.2016 08:02 4,4 C 4,4 C 2,8 C 95 % 0 lf 998,9 hPa 0,0 l/m 2 min 0 min 26 W/m 18,8 km/h (3 Bft) 97,87 %
06.11.2016 08:04 4,4 C 5,0 C 3,3 C 95 % 0 lf 999,0 hPa 0,0 l/m 2 min 0 min 29 W/m 23,0 km/h (4 Bft) 95,74 %
06.11.2016 08:06 4,4 C 5,0 C 3,3 C 95 % 0 lf 999,0 hPa 0,0 l/m 2 min 0 min 31 W/m 23,0 km/h (4 Bft) 97,83 %
06.11.2016 08:08 4,4 C 5,0 C 3,3 C 95 % 0 lf 999,0 hPa 0,0 l/m 2 min 0 min 31 W/m 18,8 km/h (3 Bft) 95,74 %
06.11.2016 08:10 4,5 C 5,0 C 3,3 C 95 % 0 lf 999,0 hPa 0,0 l/m 2 min 0 min 34 W/m 27,2 km/h (4 Bft) 97,87 %
06.11.2016 08:12 4,5 C 5,0 C 3,3 C 95 % 0 lf 999,0 hPa 0,0 l/m 2 min 0 min 40 W/m 16,7 km/h (3 Bft) 93,62 %
06.11.2016 08:14 4,5 C 5,0 C 3,3 C 95 % 0 lf 999,0 hPa 0,0 l/m 2 min 0 min 43 W/m 18,8 km/h (3 Bft) 91,49 %
06.11.2016 08:16 4,5 C 5,0 C 3,3 C 95 % 0 lf 999,0 hPa 0,0 l/m 2 min 0 min 44 W/m 23,0 km/h (4 Bft) 93,62 %
06.11.2016 08:18 4,5 C 5,0 C 3,3 C 95 % 0 lf 999,0 hPa 0,0 l/m 2 min 0 min 48 W/m 18,8 km/h (3 Bft) 93,48 %
06.11.2016 08:20 4,5 C 5,0 C 3,3 C 95 % 0 lf 999,0 hPa 0,0 l/m 2 min 0 min 53 W/m 29,3 km/h (5 Bft) 91,49 %
06.11.2016 08:22 4,5 C 5,0 C 3,3 C 95 % 1 lf 998,9 hPa 0,0 l/m 2 min 0 min 63 W/m 20,9 km/h (4 Bft) 89,36 %
06.11.2016 08:24 4,5 C 5,0 C 3,3 C 95 % 0 lf 999,0 hPa 0,0 l/m 2 min 0 min 77 W/m 31,4 km/h (5 Bft) 91,49 %
06.11.2016 08:26 4,6 C 5,0 C 3,3 C 95 % 0 lf 999,0 hPa 0,0 l/m 2 min 0 min 86 W/m 18,8 km/h (3 Bft) 91,49 %
06.11.2016 08:28 4,6 C 5,6 C 3,3 C 95 % 1 lf 999,0 hPa 0,0 l/m 2 min 0 min 90 W/m 23,0 km/h (4 Bft) 93,62 %
06.11.2016 08:30 4,6 C 5,6 C 3,3 C 95 % 0 lf 999,0 hPa 0,0 l/m 2 min 0 min 85 W/m 18,8 km/h (3 Bft) 89,13 %
06.11.2016 08:32 4,6 C 5,6 C 3,3 C 95 % 0 lf 998,9 hPa 0,0 l/m 2 min 0 min 85 W/m 20,9 km/h (4 Bft) 91,49 %
06.11.2016 08:34 4,6 C 5,6 C 3,9 C 95 % 4 lf 998,9 hPa 0,0 l/m 2 min 2 min 92 W/m 14,6 km/h (3 Bft) 91,49 %
06.11.2016 08:36 4,7 C 5,6 C 3,9 C 95 % 4 lf 998,9 hPa 0,0 l/m 2 min 2 min 89 W/m 23,0 km/h (4 Bft) 91,49 %
06.11.2016 08:38 4,7 C 5,6 C 3,9 C 95 % 3 lf 999,0 hPa 0,0 l/m 0 min 0 min 60 W/m 25,1 km/h (4 Bft) 91,49 %
06.11.2016 08:40 4,7 C 5,6 C 3,9 C 95 % 2 lf 998,9 hPa 0,0 l/m 0 min 0 min 50 W/m 23,0 km/h (4 Bft) 95,74 %
06.11.2016 08:42 4,8 C 5,6 C 3,9 C 95 % 0 lf 999,0 hPa 0,0 l/m 0 min 2 min 46 W/m 27,2 km/h (4 Bft) 95,65 %
06.11.2016 08:44 4,8 C 5,6 C 3,9 C 95 % 0 lf 999,0 hPa 0,0 l/m 0 min 2 min 55 W/m 29,3 km/h (5 Bft) 93,62 %
06.11.2016 08:46 4,8 C 5,6 C 3,9 C 95 % 0 lf 999,0 hPa 0,0 l/m 0 min 2 min 60 W/m 27,2 km/h (4 Bft) 91,49 %
06.11.2016 08:48 4,8 C 5,6 C 3,9 C 95 % 0 lf 998,9 hPa 0,0 l/m 0 min 2 min 56 W/m 27,2 km/h (4 Bft) 93,62 %
06.11.2016 08:50 4,9 C 5,6 C 3,9 C 95 % 0 lf 999,0 hPa 0,0 l/m 0 min 0 min 60 W/m 23,0 km/h (4 Bft) 95,74 %
06.11.2016 08:52 4,9 C 5,6 C 3,9 C 95 % 0 lf 998,9 hPa 0,0 l/m 2 min 0 min 96 W/m 23,0 km/h (4 Bft) 93,62 %
06.11.2016 08:54 4,9 C 5,6 C 3,9 C 95 % 0 lf 998,8 hPa 0,0 l/m 2 min 0 min 115 W/m 33,5 km/h (5 Bft) 93,48 %
06.11.2016 08:56 4,9 C 5,6 C 3,9 C 95 % 0 lf 998,9 hPa 0,0 l/m 2 min 2 min 125 W/m 31,4 km/h (5 Bft) 91,49 %
06.11.2016 08:58 4,9 C 5,6 C 3,9 C 95 % 0 lf 998,9 hPa 0,0 l/m 2 min 0 min 136 W/m 27,2 km/h (4 Bft) 95,74 %
06.11.2016 09:00 4,9 C 5,6 C 3,9 C 95 % 0 lf 998,9 hPa 0,0 l/m 2 min 0 min 149 W/m 29,3 km/h (5 Bft) 95,74 %
06.11.2016 09:02 4,9 C 6,1 C 3,9 C 95 % 0 lf 998,9 hPa 0,0 l/m 2 min 0 min 155 W/m 27,2 km/h (4 Bft) 93,62 %
06.11.2016 09:04 5,0 C 6,1 C 4,4 C 95 % 0 lf 998,8 hPa 0,0 l/m 2 min 0 min 166 W/m 25,1 km/h (4 Bft) 91,67 %
06.11.2016 09:06 5,0 C 6,1 C 4,4 C 95 % 0 lf 998,8 hPa 0,0 l/m 2 min 0 min 170 W/m 18,8 km/h (3 Bft) 93,62 %
06.11.2016 09:08 5,0 C 6,1 C 4,4 C 95 % 0 lf 998,8 hPa 0,0 l/m 2 min 0 min 173 W/m 27,2 km/h (4 Bft) 97,87 %
06.11.2016 09:10 5,1 C 6,7 C 4,4 C 95 % 0 lf 998,8 hPa 0,0 l/m 2 min 0 min 220 W/m 27,2 km/h (4 Bft) 95,74 %
06.11.2016 09:12 5,1 C 6,7 C 5,0 C 95 % 0 lf 998,8 hPa 0,0 l/m 2 min 2 min 248 W/m 31,4 km/h (5 Bft) 95,65 %
06.11.2016 09:14 5,2 C 6,7 C 5,0 C 95 % 0 lf 998,8 hPa 0,0 l/m 2 min 0 min 206 W/m 29,3 km/h (5 Bft) 95,74 %
06.11.2016 09:16 5,2 C 6,7 C 5,0 C 94 % 0 lf 998,8 hPa 0,0 l/m 2 min 0 min 178 W/m 31,4 km/h (5 Bft) 97,87 %
06.11.2016 09:18 5,3 C 6,7 C 5,0 C 94 % 0 lf 998,8 hPa 0,0 l/m 2 min 0 min 149 W/m 29,3 km/h (5 Bft) 95,74 %
06.11.2016 09:20 5,3 C 6,7 C 5,0 C 95 % 0 lf 998,8 hPa 0,0 l/m 0 min 0 min 90 W/m 23,0 km/h (4 Bft) 95,74 %
06.11.2016 09:22 5,3 C 6,7 C 5,0 C 94 % 0 lf 998,8 hPa 0,0 l/m 0 min 0 min 102 W/m 31,4 km/h (5 Bft) 95,74 %
06.11.2016 09:24 5,4 C 6,7 C 5,0 C 94 % 0 lf 998,9 hPa 0,0 l/m 2 min 0 min 149 W/m 31,4 km/h (5 Bft) 97,83 %
06.11.2016 09:26 5,4 C 8,3 C 5,0 C 94 % 0 lf 998,8 hPa 0,0 l/m 2 min 0 min 207 W/m 29,3 km/h (5 Bft) 95,74 %
06.11.2016 09:28 5,4 C 7,8 C 5,0 C 94 % 0 lf 998,8 hPa 0,0 l/m 2 min 0 min 218 W/m 27,2 km/h (4 Bft) 93,62 %
06.11.2016 09:30 5,4 C 8,3 C 5,0 C 94 % 0 lf 998,8 hPa 0,0 l/m 2 min 0 min 233 W/m 31,4 km/h (5 Bft) 95,74 %
06.11.2016 09:32 5,4 C 8,9 C 5,0 C 94 % 0 lf 998,8 hPa 0,0 l/m 2 min 0 min 239 W/m 31,4 km/h (5 Bft) 100,00 %
06.11.2016 09:34 5,5 C 9,4 C 5,0 C 94 % 0 lf 998,8 hPa 0,0 l/m 2 min 0 min 241 W/m 23,0 km/h (4 Bft) 100,00 %
06.11.2016 09:36 5,6 C 9,4 C 5,0 C 94 % 0 lf 998,9 hPa 0,0 l/m 2 min 0 min 245 W/m 27,2 km/h (4 Bft) 100,00 %
06.11.2016 09:38 5,6 C 8,9 C 5,0 C 94 % 0 lf 998,9 hPa 0,0 l/m 2 min 0 min 209 W/m 27,2 km/h (4 Bft) 100,00 %
06.11.2016 09:40 5,7 C 8,9 C 5,0 C 94 % 0 lf 998,8 hPa 0,0 l/m 2 min 0 min 270 W/m 27,2 km/h (4 Bft) 100,00 %
06.11.2016 09:42 5,7 C 9,4 C 5,0 C 93 % 0 lf 998,8 hPa 0,0 l/m 2 min 0 min 270 W/m 29,3 km/h (5 Bft) 97,87 %
06.11.2016 09:44 5,7 C 9,4 C 5,0 C 93 % 0 lf 998,8 hPa 0,0 l/m 2 min 0 min 270 W/m 29,3 km/h (5 Bft) 97,87 %
06.11.2016 09:46 5,8 C 10,0 C 5,0 C 93 % 0 lf 998,9 hPa 0,0 l/m 2 min 0 min 266 W/m 35,6 km/h (5 Bft) 93,48 %
06.11.2016 09:48 5,8 C 10,0 C 5,0 C 93 % 0 lf 998,8 hPa 0,0 l/m 2 min 0 min 273 W/m 29,3 km/h (5 Bft) 97,87 %
06.11.2016 09:50 5,8 C 10,0 C 5,0 C 93 % 0 lf 998,8 hPa 0,0 l/m 2 min 0 min 281 W/m 35,6 km/h (5 Bft) 100,00 %
06.11.2016 09:52 5,8 C 11,1 C 5,0 C 93 % 0 lf 998,8 hPa 0,0 l/m 2 min 0 min 285 W/m 35,6 km/h (5 Bft) 100,00 %
06.11.2016 09:54 5,9 C 11,7 C 5,0 C 93 % 0 lf 998,8 hPa 0,0 l/m 2 min 0 min 280 W/m 27,2 km/h (4 Bft) 95,74 %
06.11.2016 09:56 5,9 C 11,7 C 5,0 C 92 % 0 lf 998,8 hPa 0,0 l/m 2 min 0 min 272 W/m 31,4 km/h (5 Bft) 100,00 %
06.11.2016 09:58 5,9 C 12,2 C 5,0 C 92 % 0 lf 998,8 hPa 0,0 l/m 2 min 0 min 264 W/m 25,1 km/h (4 Bft) 100,00 %
06.11.2016 10:00 6,0 C 11,7 C 5,0 C 92 % 0 lf 998,7 hPa 0,0 l/m 2 min 0 min 260 W/m 33,5 km/h (5 Bft) 97,87 %
06.11.2016 10:02 6,1 C 11,7 C 5,0 C 92 % 0 lf 998,7 hPa 0,0 l/m 2 min 0 min 270 W/m 31,4 km/h (5 Bft) 97,92 %
06.11.2016 10:04 6,1 C 12,8 C 5,0 C 92 % 0 lf 998,8 hPa 0,0 l/m 2 min 0 min 275 W/m 25,1 km/h (4 Bft) 95,74 %
06.11.2016 10:06 6,2 C 13,3 C 5,0 C 92 % 0 lf 998,8 hPa 0,0 l/m 2 min 0 min 278 W/m 29,3 km/h (5 Bft) 95,74 %
06.11.2016 10:08 6,2 C 12,2 C 5,0 C 91 % 0 lf 998,9 hPa 0,0 l/m 2 min 0 min 270 W/m 37,7 km/h (5 Bft) 100,00 %
06.11.2016 10:10 6,2 C 12,2 C 5,0 C 91 % 0 lf 998,9 hPa 0,0 l/m 2 min 0 min 298 W/m 29,3 km/h (5 Bft) 95,74 %
06.11.2016 10:12 6,2 C 12,2 C 5,6 C 91 % 0 lf 998,8 hPa 0,0 l/m 2 min 0 min 302 W/m 29,3 km/h (5 Bft) 95,74 %
06.11.2016 10:14 6,3 C 11,7 C 5,6 C 91 % 0 lf 998,9 hPa 0,0 l/m 2 min 0 min 250 W/m 29,3 km/h (5 Bft) 95,65 %
06.11.2016 10:16 6,3 C 10,6 C 5,0 C 91 % 0 lf 998,9 hPa 0,0 l/m 2 min 0 min 157 W/m 37,7 km/h (5 Bft) 95,74 %
06.11.2016 10:18 6,4 C 10,0 C 5,0 C 91 % 0 lf 998,8 hPa 0,0 l/m 2 min 0 min 169 W/m 37,7 km/h (5 Bft) 97,87 %
06.11.2016 10:20 6,4 C 11,1 C 5,0 C 90 % 0 lf 998,9 hPa 0,0 l/m 2 min 0 min 320 W/m 27,2 km/h (4 Bft) 97,87 %
06.11.2016 10:22 6,4 C 11,7 C 5,0 C 90 % 0 lf 998,9 hPa 0,0 l/m 2 min 0 min 309 W/m 33,5 km/h (5 Bft) 93,62 %
06.11.2016 10:24 6,4 C 10,0 C 5,0 C 90 % 0 lf 999,0 hPa 0,0 l/m 2 min 0 min 193 W/m 29,3 km/h (5 Bft) 100,00 %
06.11.2016 10:26 6,4 C 9,4 C 5,0 C 90 % 0 lf 999,0 hPa 0,0 l/m 0 min 0 min 130 W/m 27,2 km/h (4 Bft) 93,48 %
06.11.2016 10:28 6,4 C 9,4 C 5,0 C 90 % 0 lf 999,2 hPa 0,0 l/m 2 min 0 min 257 W/m 31,4 km/h (5 Bft) 95,74 %
06.11.2016 10:30 6,4 C 10,6 C 5,6 C 90 % 0 lf 999,1 hPa 0,0 l/m 2 min 0 min 338 W/m 31,4 km/h (5 Bft) 97,87 %
06.11.2016 10:32 6,4 C 9,4 C 5,6 C 90 % 0 lf 999,0 hPa 0,0 l/m 2 min 0 min 270 W/m 31,4 km/h (5 Bft) 97,87 %
06.11.2016 10:34 6,4 C 11,1 C 5,6 C 90 % 0 lf 999,0 hPa 0,0 l/m 2 min 0 min 211 W/m 29,3 km/h (5 Bft) 95,74 %
06.11.2016 10:36 6,4 C 11,7 C 5,6 C 90 % 0 lf 999,1 hPa 0,0 l/m 2 min 0 min 307 W/m 33,5 km/h (5 Bft) 97,87 %
06.11.2016 10:38 6,4 C 12,2 C 5,6 C 89 % 0 lf 999,0 hPa 0,0 l/m 2 min 0 min 305 W/m 35,6 km/h (5 Bft) 93,48 %
06.11.2016 10:40 6,4 C 12,8 C 5,6 C 89 % 0 lf 999,1 hPa 0,0 l/m 2 min 0 min 312 W/m 43,9 km/h (6 Bft) 95,74 %
06.11.2016 10:42 6,5 C 12,8 C 5,6 C 89 % 0 lf 999,0 hPa 0,0 l/m 2 min 0 min 297 W/m 25,1 km/h (4 Bft) 97,87 %
06.11.2016 10:44 6,5 C 12,8 C 5,6 C 89 % 0 lf 999,0 hPa 0,0 l/m 2 min 0 min 317 W/m 33,5 km/h (5 Bft) 97,87 %
06.11.2016 10:46 6,5 C 12,8 C 5,6 C 89 % 0 lf 999,1 hPa 0,0 l/m 2 min 0 min 325 W/m 39,7 km/h (6 Bft) 97,87 %
06.11.2016 10:48 6,6 C 13,9 C 5,6 C 89 % 0 lf 999,0 hPa 0,0 l/m 2 min 0 min 323 W/m 29,3 km/h (5 Bft) 95,74 %
06.11.2016 10:50 6,6 C 13,3 C 5,6 C 89 % 0 lf 999,0 hPa 0,0 l/m 2 min 0 min 329 W/m 31,4 km/h (5 Bft) 97,83 %
06.11.2016 10:52 6,7 C 13,3 C 5,6 C 89 % 0 lf 999,0 hPa 0,0 l/m 2 min 0 min 328 W/m 29,3 km/h (5 Bft) 97,87 %
06.11.2016 10:54 6,7 C 13,3 C 5,6 C 89 % 0 lf 999,1 hPa 0,0 l/m 2 min 0 min 337 W/m 37,7 km/h (5 Bft) 97,87 %
06.11.2016 10:56 6,7 C 12,8 C 5,6 C 88 % 0 lf 999,1 hPa 0,0 l/m 2 min 0 min 342 W/m 31,4 km/h (5 Bft) 97,87 %
06.11.2016 10:58 6,8 C 13,9 C 5,6 C 88 % 0 lf 999,0 hPa 0,0 l/m 2 min 0 min 375 W/m 29,3 km/h (5 Bft) 100,00 %
06.11.2016 11:00 6,8 C 13,9 C 6,1 C 89 % 0 lf 999,1 hPa 0,0 l/m 2 min 0 min 387 W/m 35,6 km/h (5 Bft) 97,83 %
06.11.2016 11:02 6,8 C 13,3 C 6,1 C 88 % 0 lf 999,0 hPa 0,0 l/m 2 min 0 min 386 W/m 41,8 km/h (6 Bft) 95,74 %
06.11.2016 11:04 6,9 C 12,8 C 6,1 C 88 % 0 lf 999,2 hPa 0,0 l/m 2 min 0 min 406 W/m 31,4 km/h (5 Bft) 95,74 %
06.11.2016 11:06 6,9 C 13,9 C 6,7 C 88 % 0 lf 999,1 hPa 0,0 l/m 2 min 0 min 469 W/m 33,5 km/h (5 Bft) 95,74 %
06.11.2016 11:08 7,0 C 14,4 C 7,2 C 88 % 0 lf 999,0 hPa 0,0 l/m 2 min 0 min 459 W/m 29,3 km/h (5 Bft) 89,36 %
06.11.2016 11:10 7,1 C 12,8 C 6,7 C 88 % 0 lf 999,1 hPa 0,0 l/m 2 min 0 min 348 W/m 31,4 km/h (5 Bft) 91,49 %
06.11.2016 11:12 7,1 C 10,6 C 6,7 C 88 % 0 lf 999,0 hPa 0,0 l/m 2 min 0 min 282 W/m 35,6 km/h (5 Bft) 89,13 %
06.11.2016 11:14 7,1 C 8,9 C 6,1 C 88 % 0 lf 999,1 hPa 0,0 l/m 0 min 0 min 172 W/m 35,6 km/h (5 Bft) 95,74 %
06.11.2016 11:16 7,1 C 8,9 C 6,1 C 87 % 0 lf 999,0 hPa 0,0 l/m 2 min 0 min 192 W/m 33,5 km/h (5 Bft) 91,49 %
06.11.2016 11:18 7,0 C 8,9 C 6,1 C 87 % 0 lf 998,9 hPa 0,0 l/m 0 min 0 min 168 W/m 33,5 km/h (5 Bft) 95,74 %
06.11.2016 11:20 7,0 C 8,9 C 6,1 C 87 % 0 lf 998,9 hPa 0,0 l/m 0 min 0 min 169 W/m 35,6 km/h (5 Bft) 93,62 %
06.11.2016 11:22 6,9 C 8,9 C 6,1 C 87 % 0 lf 998,9 hPa 0,0 l/m 2 min 0 min 196 W/m 41,8 km/h (6 Bft) 95,74 %
06.11.2016 11:24 6,9 C 10,6 C 6,1 C 87 % 0 lf 998,9 hPa 0,0 l/m 2 min 0 min 323 W/m 25,1 km/h (4 Bft) 93,48 %
06.11.2016 11:26 6,9 C 11,7 C 6,7 C 87 % 0 lf 998,9 hPa 0,0 l/m 2 min 0 min 309 W/m 23,0 km/h (4 Bft) 93,62 %
06.11.2016 11:28 7,0 C 11,7 C 6,7 C 88 % 0 lf 998,9 hPa 0,0 l/m 2 min 0 min 325 W/m 25,1 km/h (4 Bft) 91,49 %
06.11.2016 11:30 7,1 C 10,6 C 7,2 C 88 % 0 lf 999,0 hPa 0,0 l/m 2 min 0 min 234 W/m 29,3 km/h (5 Bft) 93,62 %
06.11.2016 11:32 7,1 C 10,0 C 7,2 C 88 % 0 lf 998,8 hPa 0,0 l/m 0 min 0 min 161 W/m 29,3 km/h (5 Bft) 93,62 %
06.11.2016 11:34 7,1 C 8,9 C 7,2 C 88 % 0 lf 998,9 hPa 0,0 l/m 0 min 0 min 168 W/m 43,9 km/h (6 Bft) 91,49 %
06.11.2016 11:36 7,1 C 8,9 C 6,7 C 87 % 0 lf 999,0 hPa 0,0 l/m 0 min 0 min 178 W/m 29,3 km/h (5 Bft) 93,48 %
06.11.2016 11:38 7,1 C 8,3 C 6,7 C 87 % 0 lf 999,0 hPa 0,0 l/m 0 min 0 min 140 W/m 35,6 km/h (5 Bft) 93,62 %
06.11.2016 11:40 7,1 C 8,3 C 6,7 C 87 % 0 lf 998,9 hPa 0,0 l/m 0 min 0 min 126 W/m 35,6 km/h (5 Bft) 89,36 %
06.11.2016 11:42 7,1 C 8,3 C 6,7 C 87 % 0 lf 998,8 hPa 0,0 l/m 2 min 0 min 213 W/m 31,4 km/h (5 Bft) 95,74 %
06.11.2016 11:44 7,1 C 9,4 C 7,2 C 87 % 0 lf 998,8 hPa 0,0 l/m 2 min 0 min 269 W/m 29,3 km/h (5 Bft) 91,49 %
06.11.2016 11:46 7,2 C 10,0 C 7,8 C 87 % 0 lf 998,8 hPa 0,0 l/m 2 min 0 min 471 W/m 25,1 km/h (4 Bft) 93,62 %
06.11.2016 11:48 7,2 C 10,6 C 7,8 C 87 % 0 lf 998,7 hPa 0,0 l/m 2 min 0 min 340 W/m 27,2 km/h (4 Bft) 95,65 %
06.11.2016 11:50 7,3 C 10,0 C 7,2 C 87 % 0 lf 998,7 hPa 0,0 l/m 2 min 0 min 243 W/m 29,3 km/h (5 Bft) 91,49 %
06.11.2016 11:52 7,3 C 10,0 C 7,2 C 87 % 0 lf 998,7 hPa 0,0 l/m 2 min 0 min 198 W/m 37,7 km/h (5 Bft) 95,74 %
06.11.2016 11:54 7,3 C 9,4 C 7,2 C 87 % 0 lf 998,7 hPa 0,0 l/m 2 min 0 min 219 W/m 31,4 km/h (5 Bft) 97,87 %
06.11.2016 11:56 7,3 C 9,4 C 7,2 C 87 % 0 lf 998,7 hPa 0,0 l/m 0 min 0 min 185 W/m 33,5 km/h (5 Bft) 95,74 %
06.11.2016 11:58 7,3 C 8,9 C 7,2 C 87 % 0 lf 998,7 hPa 0,0 l/m 0 min 0 min 146 W/m 33,5 km/h (5 Bft) 95,74 %
06.11.2016 12:00 7,3 C 8,9 C 6,7 C 87 % 0 lf 998,7 hPa 0,0 l/m 0 min 0 min 150 W/m 31,4 km/h (5 Bft) 95,65 %
06.11.2016 12:02 7,3 C 8,9 C 7,2 C 87 % 0 lf 998,7 hPa 0,0 l/m 0 min 0 min 155 W/m 20,9 km/h (4 Bft) 93,62 %
06.11.2016 12:06 7,2 C 8,3 C 6,7 C 87 % 0 lf 998,7 hPa 0,0 l/m 0 min 0 min 137 W/m 33,5 km/h (5 Bft) 96,81 %
06.11.2016 12:08 7,2 C 8,3 C 6,7 C 87 % 0 lf 998,7 hPa 0,0 l/m 0 min 0 min 122 W/m 31,4 km/h (5 Bft) 97,87 %
06.11.2016 12:10 7,2 C 8,3 C 6,7 C 86 % 0 lf 998,7 hPa 0,0 l/m 0 min 0 min 151 W/m 29,3 km/h (5 Bft) 93,48 %
06.11.2016 12:12 7,2 C 8,9 C 6,7 C 86 % 0 lf 998,7 hPa 0,0 l/m 0 min 0 min 191 W/m 35,6 km/h (5 Bft) 97,87 %
06.11.2016 12:14 7,2 C 9,4 C 7,2 C 86 % 0 lf 998,7 hPa 0,0 l/m 2 min 0 min 300 W/m 29,3 km/h (5 Bft) 97,87 %
06.11.2016 12:16 7,2 C 9,4 C 7,2 C 87 % 0 lf 998,7 hPa 0,0 l/m 2 min 0 min 269 W/m 41,8 km/h (6 Bft) 97,87 %
06.11.2016 12:18 7,3 C 9,4 C 7,2 C 87 % 0 lf 998,6 hPa 0,0 l/m 0 min 0 min 181 W/m 31,4 km/h (5 Bft) 93,62 %
06.11.2016 12:20 7,3 C 9,4 C 7,2 C 86 % 0 lf 998,7 hPa 0,0 l/m 2 min 0 min 199 W/m 31,4 km/h (5 Bft) 95,74 %
06.11.2016 12:22 7,3 C 8,9 C 7,2 C 86 % 0 lf 998,6 hPa 0,0 l/m 0 min 0 min 146 W/m 29,3 km/h (5 Bft) 95,65 %
06.11.2016 12:24 7,3 C 8,9 C 7,2 C 86 % 0 lf 998,6 hPa 0,0 l/m 0 min 0 min 138 W/m 31,4 km/h (5 Bft) 97,87 %
06.11.2016 12:26 7,3 C 8,9 C 7,2 C 86 % 0 lf 998,6 hPa 0,0 l/m 0 min 0 min 183 W/m 31,4 km/h (5 Bft) 97,87 %
06.11.2016 12:28 7,4 C 9,4 C 7,2 C 86 % 0 lf 998,6 hPa 0,0 l/m 2 min 0 min 235 W/m 29,3 km/h (5 Bft) 93,62 %
06.11.2016 12:30 7,4 C 10,0 C 7,8 C 86 % 0 lf 998,6 hPa 0,0 l/m 2 min 0 min 264 W/m 18,8 km/h (3 Bft) 97,87 %
06.11.2016 12:32 7,4 C 10,0 C 7,8 C 86 % 0 lf 998,5 hPa 0,0 l/m 2 min 0 min 261 W/m 35,6 km/h (5 Bft) 95,74 %
06.11.2016 12:34 7,5 C 10,6 C 7,8 C 86 % 0 lf 998,5 hPa 0,0 l/m 2 min 0 min 279 W/m 31,4 km/h (5 Bft) 95,65 %
06.11.2016 12:36 7,6 C 11,7 C 8,3 C 86 % 0 lf 998,5 hPa 0,0 l/m 2 min 0 min 439 W/m 29,3 km/h (5 Bft) 95,74 %
06.11.2016 12:38 7,7 C 11,7 C 8,3 C 86 % 0 lf 998,4 hPa 0,0 l/m 2 min 0 min 480 W/m 29,3 km/h (5 Bft) 97,87 %
06.11.2016 12:40 7,7 C 11,7 C 7,8 C 86 % 0 lf 998,4 hPa 0,0 l/m 2 min 0 min 431 W/m 27,2 km/h (4 Bft) 91,49 %
06.11.2016 12:42 7,8 C 11,1 C 7,8 C 86 % 0 lf 998,4 hPa 0,0 l/m 2 min 0 min 219 W/m 33,5 km/h (5 Bft) 95,74 %
06.11.2016 12:44 7,8 C 11,1 C 7,8 C 85 % 0 lf 998,4 hPa 0,0 l/m 0 min 0 min 176 W/m 37,7 km/h (5 Bft) 97,87 %
06.11.2016 12:46 7,9 C 11,1 C 7,8 C 85 % 0 lf 998,4 hPa 0,0 l/m 0 min 0 min 176 W/m 25,1 km/h (4 Bft) 97,83 %
06.11.2016 12:48 7,9 C 10,6 C 7,8 C 84 % 0 lf 998,4 hPa 0,0 l/m 2 min 0 min 243 W/m 37,7 km/h (5 Bft) 97,87 %
06.11.2016 12:50 7,9 C 9,4 C 7,2 C 84 % 0 lf 998,4 hPa 0,0 l/m 2 min 0 min 228 W/m 46,0 km/h (6 Bft) 97,87 %
06.11.2016 12:52 7,8 C 9,4 C 7,2 C 84 % 0 lf 998,4 hPa 0,0 l/m 0 min 0 min 175 W/m 31,4 km/h (5 Bft) 97,87 %
06.11.2016 12:54 7,8 C 10,0 C 7,8 C 84 % 0 lf 998,3 hPa 0,0 l/m 0 min 0 min 171 W/m 23,0 km/h (4 Bft) 97,87 %
06.11.2016 12:56 7,8 C 9,4 C 7,2 C 84 % 0 lf 998,3 hPa 0,0 l/m 0 min 0 min 154 W/m 39,7 km/h (6 Bft) 100,00 %
06.11.2016 12:58 7,8 C 9,4 C 7,8 C 84 % 0 lf 998,3 hPa 0,0 l/m 0 min 0 min 157 W/m 25,1 km/h (4 Bft) 97,83 %
06.11.2016 13:00 7,8 C 9,4 C 7,8 C 84 % 0 lf 998,3 hPa 0,0 l/m 0 min 0 min 163 W/m 25,1 km/h (4 Bft) 97,87 %
06.11.2016 13:02 7,8 C 8,9 C 7,8 C 84 % 0 lf 998,3 hPa 0,0 l/m 0 min 0 min 149 W/m 29,3 km/h (5 Bft) 95,74 %
06.11.2016 13:04 7,8 C 8,9 C 7,2 C 84 % 0 lf 998,4 hPa 0,0 l/m 0 min 0 min 124 W/m 25,1 km/h (4 Bft) 97,87 %
06.11.2016 13:06 7,8 C 8,9 C 7,2 C 84 % 0 lf 998,3 hPa 0,0 l/m 0 min 0 min 129 W/m 33,5 km/h (5 Bft) 95,74 %
06.11.2016 13:08 7,7 C 8,3 C 7,2 C 84 % 0 lf 998,3 hPa 0,0 l/m 0 min 0 min 130 W/m 37,7 km/h (5 Bft) 95,65 %
06.11.2016 13:10 7,7 C 8,3 C 7,2 C 84 % 0 lf 998,3 hPa 0,0 l/m 0 min 0 min 136 W/m 31,4 km/h (5 Bft) 97,87 %
06.11.2016 13:12 7,7 C 8,3 C 7,2 C 84 % 0 lf 998,3 hPa 0,0 l/m 0 min 0 min 144 W/m 39,7 km/h (6 Bft) 95,74 %
06.11.2016 13:14 7,6 C 8,9 C 7,2 C 84 % 0 lf 998,3 hPa 0,0 l/m 0 min 0 min 151 W/m 37,7 km/h (5 Bft) 95,74 %
06.11.2016 13:16 7,6 C 8,9 C 7,8 C 84 % 0 lf 998,3 hPa 0,0 l/m 2 min 0 min 183 W/m 31,4 km/h (5 Bft) 96,23 %
06.11.2016 13:18 7,6 C 9,4 C 7,8 C 84 % 0 lf 998,4 hPa 0,0 l/m 2 min 0 min 187 W/m 31,4 km/h (5 Bft) 95,74 %
06.11.2016 13:20 7,6 C 8,9 C 7,8 C 84 % 0 lf 998,4 hPa 0,0 l/m 0 min 0 min 175 W/m 37,7 km/h (5 Bft) 97,87 %
06.11.2016 13:22 7,7 C 9,4 C 7,8 C 84 % 0 lf 998,3 hPa 0,0 l/m 2 min 0 min 211 W/m 29,3 km/h (5 Bft) 97,87 %
06.11.2016 13:24 7,7 C 9,4 C 7,8 C 84 % 0 lf 998,3 hPa 0,0 l/m 2 min 0 min 209 W/m 20,9 km/h (4 Bft) 97,87 %
06.11.2016 13:26 7,7 C 9,4 C 7,8 C 84 % 0 lf 998,4 hPa 0,0 l/m 0 min 0 min 176 W/m 23,0 km/h (4 Bft) 95,65 %
06.11.2016 13:28 7,7 C 8,9 C 7,8 C 84 % 0 lf 998,3 hPa 0,0 l/m 0 min 0 min 154 W/m 31,4 km/h (5 Bft) 95,74 %
06.11.2016 13:30 7,7 C 8,9 C 7,8 C 84 % 0 lf 998,3 hPa 0,0 l/m 0 min 0 min 152 W/m 37,7 km/h (5 Bft) 100,00 %
06.11.2016 13:32 7,7 C 9,4 C 7,8 C 84 % 0 lf 998,3 hPa 0,0 l/m 2 min 0 min 185 W/m 25,1 km/h (4 Bft) 100,00 %
06.11.2016 13:34 7,7 C 9,4 C 7,8 C 84 % 0 lf 998,3 hPa 0,0 l/m 2 min 0 min 198 W/m 31,4 km/h (5 Bft) 100,00 %
06.11.2016 13:36 7,8 C 8,9 C 7,8 C 84 % 0 lf 998,2 hPa 0,0 l/m 0 min 0 min 115 W/m 31,4 km/h (5 Bft) 97,87 %
06.11.2016 13:38 7,8 C 8,9 C 7,2 C 84 % 0 lf 998,3 hPa 0,0 l/m 0 min 0 min 76 W/m 29,3 km/h (5 Bft) 100,00 %
06.11.2016 13:40 7,8 C 8,3 C 7,2 C 83 % 0 lf 998,3 hPa 0,0 l/m 0 min 0 min 69 W/m 31,4 km/h (5 Bft) 95,74 %
06.11.2016 13:42 7,7 C 8,3 C 7,2 C 83 % 0 lf 998,2 hPa 0,0 l/m 0 min 0 min 59 W/m 29,3 km/h (5 Bft) 97,87 %
06.11.2016 13:44 7,7 C 8,3 C 7,2 C 83 % 0 lf 998,2 hPa 0,0 l/m 0 min 0 min 55 W/m 23,0 km/h (4 Bft) 97,87 %
06.11.2016 13:46 7,7 C 8,3 C 7,2 C 84 % 0 lf 998,2 hPa 0,0 l/m 0 min 0 min 70 W/m 20,9 km/h (4 Bft) 100,00 %
06.11.2016 13:48 7,7 C 8,3 C 6,7 C 83 % 0 lf 998,2 hPa 0,0 l/m 0 min 0 min 72 W/m 31,4 km/h (5 Bft) 97,87 %
06.11.2016 13:50 7,7 C 8,3 C 6,7 C 83 % 0 lf 998,2 hPa 0,0 l/m 0 min 0 min 62 W/m 25,1 km/h (4 Bft) 100,00 %
06.11.2016 13:52 7,7 C 8,3 C 6,7 C 83 % 1 lf 998,2 hPa 0,0 l/m 0 min 0 min 45 W/m 23,0 km/h (4 Bft) 100,00 %
06.11.2016 13:54 7,7 C 7,8 C 6,7 C 83 % 0 lf 998,2 hPa 0,0 l/m 0 min 0 min 35 W/m 27,2 km/h (4 Bft) 97,87 %
06.11.2016 13:56 7,6 C 7,8 C 6,7 C 83 % 0 lf 998,2 hPa 0,0 l/m 0 min 0 min 32 W/m 37,7 km/h (5 Bft) 97,87 %
06.11.2016 13:58 7,6 C 7,8 C 6,7 C 83 % 0 lf 998,2 hPa 0,0 l/m 0 min 0 min 30 W/m 20,9 km/h (4 Bft) 97,87 %
06.11.2016 14:00 7,6 C 7,8 C 6,7 C 83 % 0 lf 998,2 hPa 0,0 l/m 0 min 0 min 28 W/m 25,1 km/h (4 Bft) 93,62 %
06.11.2016 14:02 7,6 C 7,8 C 6,7 C 83 % 0 lf 998,2 hPa 0,0 l/m 0 min 0 min 28 W/m 25,1 km/h (4 Bft) 95,65 %
06.11.2016 14:04 7,5 C 7,8 C 6,1 C 83 % 2 lf 998,2 hPa 0,0 l/m 0 min 0 min 26 W/m 29,3 km/h (5 Bft) 95,74 %
06.11.2016 14:06 7,5 C 7,8 C 6,1 C 83 % 1 lf 998,2 hPa 0,0 l/m 0 min 0 min 25 W/m 29,3 km/h (5 Bft) 95,74 %
06.11.2016 14:08 7,4 C 7,2 C 6,1 C 84 % 1 lf 998,2 hPa 0,0 l/m 0 min 0 min 21 W/m 25,1 km/h (4 Bft) 95,74 %
06.11.2016 14:10 7,4 C 7,2 C 6,1 C 84 % 0 lf 998,2 hPa 0,0 l/m 0 min 0 min 18 W/m 20,9 km/h (4 Bft) 93,62 %
06.11.2016 14:12 7,4 C 7,2 C 6,1 C 84 % 0 lf 998,1 hPa 0,2 l/m 0 min 0 min 16 W/m 29,3 km/h (5 Bft) 93,48 %
06.11.2016 14:14 7,4 C 7,2 C 6,1 C 84 % 0 lf 998,1 hPa 0,0 l/m 0 min 0 min 16 W/m 25,1 km/h (4 Bft) 95,74 %
06.11.2016 14:16 7,4 C 7,2 C 6,1 C 84 % 0 lf 998,2 hPa 0,0 l/m 0 min 0 min 16 W/m 25,1 km/h (4 Bft) 93,62 %
06.11.2016 14:18 7,3 C 7,2 C 6,1 C 84 % 0 lf 998,2 hPa 0,0 l/m 0 min 0 min 17 W/m 27,2 km/h (4 Bft) 95,74 %
06.11.2016 14:20 7,3 C 7,2 C 6,1 C 84 % 0 lf 998,2 hPa 0,0 l/m 0 min 0 min 18 W/m 25,1 km/h (4 Bft) 93,62 %
06.11.2016 14:22 7,3 C 7,2 C 6,1 C 84 % 0 lf 998,2 hPa 0,0 l/m 0 min 0 min 19 W/m 23,0 km/h (4 Bft) 93,62 %
06.11.2016 14:24 7,3 C 7,2 C 6,1 C 84 % 0 lf 998,2 hPa 0,0 l/m 0 min 0 min 23 W/m 35,6 km/h (5 Bft) 95,65 %
06.11.2016 14:26 7,3 C 7,2 C 6,1 C 84 % 0 lf 998,1 hPa 0,0 l/m 0 min 0 min 25 W/m 20,9 km/h (4 Bft) 95,74 %
06.11.2016 14:28 7,3 C 7,2 C 6,1 C 84 % 0 lf 998,1 hPa 0,0 l/m 0 min 0 min 20 W/m 20,9 km/h (4 Bft) 95,74 %
06.11.2016 14:30 7,3 C 7,2 C 6,1 C 84 % 0 lf 998,1 hPa 0,0 l/m 0 min 0 min 21 W/m 20,9 km/h (4 Bft) 93,62 %
06.11.2016 14:32 7,2 C 7,2 C 6,1 C 84 % 0 lf 998,1 hPa 0,0 l/m 0 min 0 min 25 W/m 20,9 km/h (4 Bft) 93,62 %
06.11.2016 14:34 7,2 C 7,2 C 6,1 C 85 % 0 lf 998,1 hPa 0,0 l/m 0 min 0 min 28 W/m 18,8 km/h (3 Bft) 93,62 %
06.11.2016 14:36 7,2 C 7,2 C 6,1 C 85 % 0 lf 998,1 hPa 0,0 l/m 0 min 0 min 31 W/m 27,2 km/h (4 Bft) 91,49 %
06.11.2016 14:38 7,2 C 7,2 C 6,1 C 84 % 0 lf 998,0 hPa 0,0 l/m 0 min 0 min 28 W/m 31,4 km/h (5 Bft) 93,48 %
06.11.2016 14:40 7,2 C 7,2 C 6,1 C 84 % 0 lf 998,0 hPa 0,0 l/m 0 min 0 min 24 W/m 31,4 km/h (5 Bft) 93,62 %
06.11.2016 14:42 7,2 C 7,2 C 6,1 C 84 % 0 lf 998,1 hPa 0,0 l/m 0 min 0 min 26 W/m 29,3 km/h (5 Bft) 95,74 %
06.11.2016 14:44 7,2 C 7,8 C 6,1 C 84 % 0 lf 998,0 hPa 0,0 l/m 0 min 0 min 27 W/m 20,9 km/h (4 Bft) 95,74 %
06.11.2016 14:46 7,2 C 7,8 C 6,1 C 84 % 0 lf 998,0 hPa 0,0 l/m 0 min 0 min 28 W/m 20,9 km/h (4 Bft) 93,62 %
06.11.2016 14:48 7,2 C 7,8 C 6,1 C 84 % 0 lf 998,0 hPa 0,0 l/m 0 min 0 min 29 W/m 20,9 km/h (4 Bft) 93,48 %
06.11.2016 14:50 7,2 C 7,8 C 6,1 C 84 % 0 lf 998,0 hPa 0,0 l/m 0 min 0 min 30 W/m 18,8 km/h (3 Bft) 89,36 %
06.11.2016 14:52 7,2 C 7,8 C 6,1 C 84 % 0 lf 998,1 hPa 0,0 l/m 0 min 0 min 30 W/m 27,2 km/h (4 Bft) 80,85 %
06.11.2016 14:54 7,2 C 7,8 C 6,1 C 84 % 0 lf 998,1 hPa 0,0 l/m 0 min 0 min 27 W/m 29,3 km/h (5 Bft) 93,62 %
06.11.2016 14:56 7,2 C 7,8 C 6,1 C 84 % 0 lf 998,1 hPa 0,0 l/m 0 min 0 min 27 W/m 27,2 km/h (4 Bft) 93,62 %
06.11.2016 14:58 7,2 C 7,8 C 6,1 C 84 % 0 lf 998,1 hPa 0,0 l/m 0 min 0 min 31 W/m 20,9 km/h (4 Bft) 93,62 %
06.11.2016 15:00 7,2 C 7,8 C 6,1 C 84 % 0 lf 998,1 hPa 0,0 l/m 0 min 0 min 30 W/m 20,9 km/h (4 Bft) 91,30 %
06.11.2016 15:02 7,2 C 7,8 C 6,1 C 84 % 0 lf 998,1 hPa 0,0 l/m 0 min 0 min 26 W/m 31,4 km/h (5 Bft) 93,62 %
06.11.2016 15:04 7,2 C 7,8 C 6,1 C 84 % 0 lf 998,1 hPa 0,0 l/m 0 min 0 min 27 W/m 25,1 km/h (4 Bft) 89,36 %
06.11.2016 15:06 7,2 C 7,8 C 6,1 C 84 % 0 lf 998,1 hPa 0,0 l/m 0 min 0 min 24 W/m 25,1 km/h (4 Bft) 93,62 %
06.11.2016 15:08 7,2 C 7,2 C 6,1 C 84 % 0 lf 998,1 hPa 0,0 l/m 0 min 0 min 23 W/m 31,4 km/h (5 Bft) 93,62 %
06.11.2016 15:10 7,2 C 7,2 C 6,1 C 84 % 1 lf 998,1 hPa 0,0 l/m 0 min 0 min 26 W/m 25,1 km/h (4 Bft) 89,36 %
06.11.2016 15:12 7,2 C 7,2 C 6,1 C 84 % 0 lf 998,1 hPa 0,0 l/m 0 min 0 min 29 W/m 18,8 km/h (3 Bft) 91,30 %
06.11.2016 15:14 7,2 C 7,2 C 6,1 C 84 % 1 lf 998,1 hPa 0,0 l/m 0 min 0 min 27 W/m 27,2 km/h (4 Bft) 93,62 %
06.11.2016 15:16 7,2 C 7,2 C 6,1 C 84 % 1 lf 998,1 hPa 0,0 l/m 0 min 0 min 26 W/m 23,0 km/h (4 Bft) 95,74 %
06.11.2016 15:18 7,2 C 7,2 C 6,1 C 84 % 0 lf 998,1 hPa 0,0 l/m 0 min 0 min 36 W/m 20,9 km/h (4 Bft) 95,74 %
06.11.2016 15:20 7,2 C 7,2 C 6,1 C 84 % 0 lf 998,2 hPa 0,0 l/m 0 min 0 min 37 W/m 23,0 km/h (4 Bft) 97,87 %
06.11.2016 15:22 7,2 C 7,2 C 5,6 C 85 % 1 lf 998,2 hPa 0,0 l/m 0 min 0 min 34 W/m 35,6 km/h (5 Bft) 95,65 %
06.11.2016 15:24 7,2 C 6,7 C 5,6 C 85 % 1 lf 998,2 hPa 0,0 l/m 0 min 0 min 32 W/m 35,6 km/h (5 Bft) 93,62 %
06.11.2016 15:26 7,1 C 6,7 C 5,6 C 85 % 11 lf 998,2 hPa 0,0 l/m 0 min 0 min 33 W/m 27,2 km/h (4 Bft) 95,74 %
06.11.2016 15:28 7,1 C 6,7 C 5,0 C 86 % 14 lf 998,2 hPa 0,0 l/m 0 min 2 min 30 W/m 20,9 km/h (4 Bft) 97,87 %
06.11.2016 15:30 7,1 C 6,1 C 5,0 C 86 % 15 lf 998,2 hPa 0,0 l/m 0 min 2 min 27 W/m 27,2 km/h (4 Bft) 93,62 %
06.11.2016 15:32 7,0 C 6,1 C 5,0 C 86 % 15 lf 998,2 hPa 0,0 l/m 0 min 0 min 25 W/m 23,0 km/h (4 Bft) 97,87 %
06.11.2016 15:34 6,9 C 6,1 C 5,0 C 87 % 15 lf 998,2 hPa 0,0 l/m 0 min 0 min 23 W/m 27,2 km/h (4 Bft) 95,65 %
06.11.2016 15:36 6,9 C 6,1 C 5,0 C 87 % 15 lf 998,2 hPa 0,0 l/m 0 min 0 min 21 W/m 23,0 km/h (4 Bft) 100,00 %
06.11.2016 15:38 6,8 C 6,1 C 5,0 C 87 % 15 lf 998,2 hPa 0,0 l/m 0 min 0 min 16 W/m 18,8 km/h (3 Bft) 100,00 %
06.11.2016 15:40 6,8 C 6,1 C 5,0 C 88 % 15 lf 998,2 hPa 0,0 l/m 0 min 2 min 18 W/m 14,6 km/h (3 Bft) 95,74 %
06.11.2016 15:42 6,8 C 6,1 C 5,0 C 88 % 15 lf 998,3 hPa 0,0 l/m 0 min 2 min 19 W/m 16,7 km/h (3 Bft) 97,87 %
06.11.2016 15:44 6,7 C 6,1 C 5,0 C 88 % 15 lf 998,3 hPa 0,0 l/m 0 min 2 min 21 W/m 18,8 km/h (3 Bft) 100,00 %
06.11.2016 15:46 6,7 C 6,1 C 5,0 C 88 % 15 lf 998,3 hPa 0,0 l/m 0 min 2 min 23 W/m 20,9 km/h (4 Bft) 100,00 %
06.11.2016 15:48 6,7 C 6,1 C 5,0 C 89 % 15 lf 998,3 hPa 0,0 l/m 0 min 2 min 20 W/m 16,7 km/h (3 Bft) 97,87 %
06.11.2016 15:50 6,7 C 6,1 C 5,0 C 89 % 15 lf 998,4 hPa 0,0 l/m 0 min 2 min 16 W/m 14,6 km/h (3 Bft) 95,74 %
06.11.2016 15:52 6,7 C 6,1 C 5,0 C 89 % 15 lf 998,4 hPa 0,0 l/m 0 min 2 min 13 W/m 16,7 km/h (3 Bft) 100,00 %
06.11.2016 15:54 6,6 C 6,1 C 4,4 C 89 % 15 lf 998,4 hPa 0,0 l/m 0 min 2 min 11 W/m 16,7 km/h (3 Bft) 100,00 %
06.11.2016 15:56 6,6 C 6,1 C 4,4 C 89 % 15 lf 998,3 hPa 0,0 l/m 0 min 2 min 11 W/m 20,9 km/h (4 Bft) 100,00 %
06.11.2016 15:58 6,6 C 6,1 C 4,4 C 89 % 15 lf 998,4 hPa 0,0 l/m 0 min 2 min 11 W/m 12,6 km/h (3 Bft) 100,00 %
06.11.2016 16:00 6,6 C 6,1 C 4,4 C 89 % 15 lf 998,4 hPa 0,0 l/m 0 min 2 min 10 W/m 20,9 km/h (4 Bft) 97,87 %
06.11.2016 16:02 6,5 C 6,1 C 4,4 C 89 % 15 lf 998,4 hPa 0,0 l/m 0 min 2 min 11 W/m 18,8 km/h (3 Bft) 97,87 %
06.11.2016 16:04 6,4 C 5,6 C 4,4 C 90 % 15 lf 998,4 hPa 0,0 l/m 0 min 2 min 11 W/m 20,9 km/h (4 Bft) 97,87 %
06.11.2016 16:06 6,4 C 5,6 C 4,4 C 90 % 15 lf 998,3 hPa 0,0 l/m 0 min 2 min 9 W/m 23,0 km/h (4 Bft) 100,00 %
06.11.2016 16:08 6,4 C 5,6 C 4,4 C 90 % 15 lf 998,3 hPa 0,0 l/m 0 min 2 min 9 W/m 20,9 km/h (4 Bft) 100,00 %
06.11.2016 16:10 6,4 C 5,6 C 4,4 C 90 % 15 lf 998,3 hPa 0,0 l/m 0 min 2 min 9 W/m 20,9 km/h (4 Bft) 97,83 %
06.11.2016 16:12 6,4 C 5,6 C 4,4 C 90 % 15 lf 998,4 hPa 0,0 l/m 0 min 0 min 9 W/m 20,9 km/h (4 Bft) 95,74 %
06.11.2016 16:14 6,4 C 6,1 C 4,4 C 90 % 15 lf 998,5 hPa 0,0 l/m 0 min 2 min 9 W/m 16,7 km/h (3 Bft) 97,87 %
06.11.2016 16:16 6,4 C 6,1 C 4,4 C 90 % 15 lf 998,5 hPa 0,0 l/m 0 min 2 min 9 W/m 27,2 km/h (4 Bft) 97,87 %
06.11.2016 16:18 6,4 C 6,1 C 4,4 C 90 % 15 lf 998,4 hPa 0,0 l/m 0 min 2 min 7 W/m 20,9 km/h (4 Bft) 97,87 %
06.11.2016 16:20 6,4 C 6,1 C 4,4 C 90 % 15 lf 998,5 hPa 0,0 l/m 0 min 2 min 7 W/m 27,2 km/h (4 Bft) 100,00 %
06.11.2016 16:22 6,4 C 5,6 C 4,4 C 90 % 15 lf 998,5 hPa 0,0 l/m 0 min 2 min 7 W/m 18,8 km/h (3 Bft) 100,00 %
06.11.2016 16:24 6,4 C 5,6 C 4,4 C 90 % 15 lf 998,5 hPa 0,0 l/m 0 min 2 min 7 W/m 23,0 km/h (4 Bft) 97,87 %
06.11.2016 16:26 6,3 C 5,6 C 4,4 C 90 % 15 lf 998,4 hPa 0,0 l/m 0 min 2 min 7 W/m 20,9 km/h (4 Bft) 97,87 %
06.11.2016 16:28 6,4 C 5,6 C 4,4 C 90 % 15 lf 998,5 hPa 0,0 l/m 0 min 2 min 6 W/m 20,9 km/h (4 Bft) 97,87 %
06.11.2016 16:30 6,3 C 5,6 C 4,4 C 90 % 15 lf 998,4 hPa 0,0 l/m 0 min 2 min 5 W/m 16,7 km/h (3 Bft) 97,87 %
06.11.2016 16:32 6,3 C 5,6 C 4,4 C 90 % 15 lf 998,4 hPa 0,0 l/m 0 min 2 min 5 W/m 20,9 km/h (4 Bft) 100,00 %
06.11.2016 16:34 6,3 C 5,6 C 4,4 C 91 % 15 lf 998,5 hPa 0,0 l/m 0 min 2 min 5 W/m 16,7 km/h (3 Bft) 100,00 %
06.11.2016 16:36 6,3 C 5,6 C 4,4 C 91 % 15 lf 998,4 hPa 0,0 l/m 0 min 2 min 5 W/m 14,6 km/h (3 Bft) 97,87 %
06.11.2016 16:38 6,3 C 5,6 C 4,4 C 91 % 15 lf 998,4 hPa 0,0 l/m 0 min 2 min 0 W/m 16,7 km/h (3 Bft) 97,87 %
06.11.2016 16:40 6,2 C 5,6 C 4,4 C 91 % 15 lf 998,4 hPa 0,2 l/m 0 min 2 min 0 W/m 16,7 km/h (3 Bft) 97,87 %
06.11.2016 16:42 6,2 C 5,6 C 4,4 C 91 % 15 lf 998,4 hPa 0,0 l/m 0 min 2 min 0 W/m 10,5 km/h (2 Bft) 95,74 %
06.11.2016 16:44 6,2 C 5,6 C 4,4 C 91 % 15 lf 998,5 hPa 0,0 l/m 0 min 2 min 0 W/m 20,9 km/h (4 Bft) 95,65 %
06.11.2016 16:46 6,2 C 5,6 C 4,4 C 91 % 15 lf 998,4 hPa 0,0 l/m 0 min 0 min 0 W/m 23,0 km/h (4 Bft) 97,87 %
06.11.2016 16:48 6,2 C 5,6 C 4,4 C 91 % 15 lf 998,5 hPa 0,0 l/m 0 min 0 min 0 W/m 23,0 km/h (4 Bft) 97,87 %
06.11.2016 16:50 6,1 C 5,6 C 4,4 C 91 % 15 lf 998,4 hPa 0,0 l/m 0 min 0 min 0 W/m 16,7 km/h (3 Bft) 89,36 %
06.11.2016 16:52 6,1 C 5,6 C 4,4 C 91 % 15 lf 998,5 hPa 0,0 l/m 0 min 0 min 0 W/m 14,6 km/h (3 Bft) 97,87 %
06.11.2016 16:54 6,1 C 5,6 C 4,4 C 91 % 15 lf 998,5 hPa 0,0 l/m 0 min 2 min 0 W/m 16,7 km/h (3 Bft) 95,74 %
06.11.2016 16:56 6,1 C 5,6 C 4,4 C 91 % 15 lf 998,5 hPa 0,0 l/m 0 min 2 min 0 W/m 18,8 km/h (3 Bft) 95,65 %
06.11.2016 16:58 6,1 C 5,6 C 4,4 C 91 % 15 lf 998,5 hPa 0,0 l/m 0 min 2 min 0 W/m 18,8 km/h (3 Bft) 95,74 %
06.11.2016 17:00 6,1 C 5,6 C 4,4 C 92 % 15 lf 998,5 hPa 0,0 l/m 0 min 2 min 0 W/m 16,7 km/h (3 Bft) 93,62 %
06.11.2016 17:02 6,1 C 5,6 C 4,4 C 92 % 15 lf 998,5 hPa 0,0 l/m 0 min 2 min 0 W/m 20,9 km/h (4 Bft) 95,74 %
06.11.2016 17:04 6,1 C 5,6 C 4,4 C 92 % 15 lf 998,5 hPa 0,0 l/m 0 min 2 min 0 W/m 20,9 km/h (4 Bft) 95,74 %
06.11.2016 17:06 6,1 C 5,6 C 4,4 C 92 % 15 lf 998,5 hPa 0,0 l/m 0 min 2 min 0 W/m 16,7 km/h (3 Bft) 93,62 %
06.11.2016 17:08 6,1 C 5,6 C 4,4 C 92 % 15 lf 998,5 hPa 0,0 l/m 0 min 2 min 0 W/m 18,8 km/h (3 Bft) 97,83 %
06.11.2016 17:10 6,1 C 5,6 C 4,4 C 92 % 15 lf 998,6 hPa 0,0 l/m 0 min 2 min 0 W/m 12,6 km/h (3 Bft) 100,00 %
06.11.2016 17:12 6,1 C 5,6 C 4,4 C 92 % 15 lf 998,5 hPa 0,0 l/m 0 min 2 min 0 W/m 18,8 km/h (3 Bft) 93,62 %
06.11.2016 17:14 6,1 C 5,6 C 4,4 C 92 % 15 lf 998,6 hPa 0,2 l/m 0 min 2 min 0 W/m 20,9 km/h (4 Bft) 93,62 %
06.11.2016 17:16 6,1 C 5,6 C 4,4 C 92 % 15 lf 998,7 hPa 0,0 l/m 0 min 2 min 0 W/m 20,9 km/h (4 Bft) 97,87 %
06.11.2016 17:18 6,1 C 5,6 C 4,4 C 92 % 15 lf 998,6 hPa 0,0 l/m 0 min 2 min 0 W/m 18,8 km/h (3 Bft) 93,62 %
06.11.2016 17:20 6,1 C 5,6 C 4,4 C 92 % 15 lf 998,7 hPa 0,0 l/m 0 min 2 min 0 W/m 16,7 km/h (3 Bft) 97,83 %
06.11.2016 17:22 6,1 C 5,6 C 4,4 C 92 % 15 lf 998,7 hPa 0,0 l/m 0 min 2 min 0 W/m 16,7 km/h (3 Bft) 95,74 %
06.11.2016 17:24 6,1 C 5,6 C 4,4 C 92 % 15 lf 998,8 hPa 0,0 l/m 0 min 2 min 0 W/m 14,6 km/h (3 Bft) 97,87 %
06.11.2016 17:26 6,1 C 5,6 C 4,4 C 92 % 15 lf 998,7 hPa 0,0 l/m 0 min 2 min 0 W/m 20,9 km/h (4 Bft) 95,74 %
06.11.2016 17:28 6,1 C 5,6 C 4,4 C 92 % 15 lf 998,7 hPa 0,0 l/m 0 min 2 min 0 W/m 16,7 km/h (3 Bft) 95,74 %
06.11.2016 17:30 6,1 C 5,6 C 4,4 C 92 % 15 lf 998,8 hPa 0,0 l/m 0 min 2 min 0 W/m 16,7 km/h (3 Bft) 95,74 %
06.11.2016 17:32 6,1 C 5,6 C 4,4 C 92 % 15 lf 998,8 hPa 0,2 l/m 0 min 2 min 0 W/m 18,8 km/h (3 Bft) 93,48 %
06.11.2016 17:34 6,0 C 5,6 C 4,4 C 92 % 15 lf 998,8 hPa 0,0 l/m 0 min 2 min 0 W/m 20,9 km/h (4 Bft) 95,74 %
06.11.2016 17:36 6,0 C 5,6 C 4,4 C 92 % 15 lf 998,9 hPa 0,0 l/m 0 min 2 min 0 W/m 23,0 km/h (4 Bft) 95,74 %
06.11.2016 17:38 6,0 C 5,6 C 4,4 C 93 % 15 lf 998,8 hPa 0,0 l/m 0 min 2 min 0 W/m 27,2 km/h (4 Bft) 93,62 %
06.11.2016 17:40 6,0 C 5,6 C 4,4 C 93 % 15 lf 998,9 hPa 0,0 l/m 0 min 2 min 0 W/m 23,0 km/h (4 Bft) 91,49 %
06.11.2016 17:42 5,9 C 5,6 C 4,4 C 93 % 15 lf 998,9 hPa 0,0 l/m 0 min 2 min 0 W/m 25,1 km/h (4 Bft) 91,49 %
06.11.2016 17:44 5,9 C 5,6 C 4,4 C 93 % 15 lf 998,8 hPa 0,0 l/m 0 min 2 min 0 W/m 14,6 km/h (3 Bft) 93,48 %
06.11.2016 17:46 5,9 C 5,6 C 4,4 C 93 % 15 lf 998,8 hPa 0,0 l/m 0 min 2 min 0 W/m 16,7 km/h (3 Bft) 97,87 %
06.11.2016 17:48 5,9 C 5,6 C 4,4 C 93 % 15 lf 998,9 hPa 0,2 l/m 0 min 2 min 0 W/m 18,8 km/h (3 Bft) 95,74 %
06.11.2016 17:50 5,9 C 5,6 C 4,4 C 93 % 15 lf 999,0 hPa 0,0 l/m 0 min 2 min 0 W/m 20,9 km/h (4 Bft) 95,74 %
06.11.2016 17:52 5,9 C 5,6 C 4,4 C 93 % 15 lf 999,1 hPa 0,0 l/m 0 min 2 min 0 W/m 14,6 km/h (3 Bft) 97,87 %
06.11.2016 17:54 5,9 C 5,6 C 4,4 C 93 % 15 lf 999,0 hPa 0,0 l/m 0 min 2 min 0 W/m 14,6 km/h (3 Bft) 97,83 %
06.11.2016 17:56 5,9 C 5,6 C 4,4 C 93 % 15 lf 999,1 hPa 0,2 l/m 0 min 2 min 0 W/m 20,9 km/h (4 Bft) 95,74 %
06.11.2016 17:58 5,9 C 5,6 C 4,4 C 93 % 15 lf 999,1 hPa 0,0 l/m 0 min 2 min 0 W/m 12,6 km/h (3 Bft) 97,87 %
06.11.2016 18:00 5,9 C 5,6 C 4,4 C 93 % 15 lf 999,1 hPa 0,0 l/m 0 min 2 min 0 W/m 18,8 km/h (3 Bft) 93,62 %
06.11.2016 18:02 5,8 C 5,6 C 4,4 C 93 % 15 lf 999,0 hPa 0,0 l/m 0 min 0 min 0 W/m 20,9 km/h (4 Bft) 93,62 %
06.11.2016 18:06 5,8 C 5,6 C 4,4 C 94 % 15 lf 999,1 hPa 0,0 l/m 0 min 0 min 0 W/m 16,7 km/h (3 Bft) 97,85 %
06.11.2016 18:08 5,8 C 5,6 C 4,4 C 94 % 15 lf 999,1 hPa 0,0 l/m 0 min 0 min 0 W/m 16,7 km/h (3 Bft) 97,87 %
06.11.2016 18:10 5,8 C 5,0 C 4,4 C 94 % 15 lf 999,1 hPa 0,0 l/m 0 min 0 min 0 W/m 20,9 km/h (4 Bft) 95,74 %
06.11.2016 18:12 5,8 C 5,6 C 4,4 C 94 % 15 lf 999,1 hPa 0,0 l/m 0 min 0 min 0 W/m 20,9 km/h (4 Bft) 97,87 %
06.11.2016 18:14 5,8 C 5,6 C 4,4 C 94 % 15 lf 999,1 hPa 0,0 l/m 0 min 0 min 0 W/m 25,1 km/h (4 Bft) 97,87 %
06.11.2016 18:16 5,8 C 5,6 C 4,4 C 94 % 15 lf 999,1 hPa 0,0 l/m 0 min 2 min 0 W/m 23,0 km/h (4 Bft) 100,00 %
06.11.2016 18:18 5,8 C 5,6 C 4,4 C 94 % 15 lf 999,2 hPa 0,0 l/m 0 min 2 min 0 W/m 23,0 km/h (4 Bft) 97,83 %
06.11.2016 18:20 5,7 C 5,6 C 4,4 C 94 % 15 lf 999,2 hPa 0,0 l/m 0 min 2 min 0 W/m 20,9 km/h (4 Bft) 97,87 %
06.11.2016 18:22 5,7 C 5,6 C 4,4 C 94 % 15 lf 999,2 hPa 0,0 l/m 0 min 2 min 0 W/m 16,7 km/h (3 Bft) 97,87 %
06.11.2016 18:24 5,7 C 5,0 C 3,9 C 94 % 15 lf 999,3 hPa 0,2 l/m 0 min 2 min 0 W/m 14,6 km/h (3 Bft) 95,74 %
06.11.2016 18:26 5,7 C 5,0 C 3,9 C 94 % 15 lf 999,2 hPa 0,0 l/m 0 min 2 min 0 W/m 25,1 km/h (4 Bft) 95,74 %
06.11.2016 18:28 5,7 C 5,0 C 3,9 C 94 % 15 lf 999,2 hPa 0,2 l/m 0 min 2 min 0 W/m 18,8 km/h (3 Bft) 93,62 %
06.11.2016 18:30 5,7 C 5,0 C 3,9 C 94 % 15 lf 999,3 hPa 0,0 l/m 0 min 2 min 0 W/m 23,0 km/h (4 Bft) 93,48 %
06.11.2016 18:32 5,7 C 5,0 C 3,9 C 94 % 15 lf 999,3 hPa 0,0 l/m 0 min 2 min 0 W/m 25,1 km/h (4 Bft) 93,62 %
06.11.2016 18:34 5,7 C 5,0 C 3,9 C 94 % 15 lf 999,2 hPa 0,0 l/m 0 min 2 min 0 W/m 25,1 km/h (4 Bft) 95,74 %
06.11.2016 18:36 5,7 C 5,0 C 3,9 C 94 % 15 lf 999,2 hPa 0,0 l/m 0 min 2 min 0 W/m 27,2 km/h (4 Bft) 91,49 %
06.11.2016 18:38 5,7 C 5,0 C 3,9 C 94 % 15 lf 999,2 hPa 0,0 l/m 0 min 2 min 0 W/m 29,3 km/h (5 Bft) 93,62 %
06.11.2016 18:40 5,6 C 5,0 C 3,9 C 94 % 15 lf 999,2 hPa 0,2 l/m 0 min 2 min 0 W/m 12,6 km/h (3 Bft) 93,62 %
06.11.2016 18:42 5,6 C 5,0 C 3,9 C 94 % 15 lf 999,3 hPa 0,0 l/m 0 min 2 min 0 W/m 27,2 km/h (4 Bft) 93,48 %
06.11.2016 18:44 5,6 C 5,0 C 3,9 C 94 % 15 lf 999,3 hPa 0,0 l/m 0 min 2 min 0 W/m 23,0 km/h (4 Bft) 95,74 %
06.11.2016 18:46 5,6 C 5,0 C 3,9 C 94 % 15 lf 999,2 hPa 0,0 l/m 0 min 2 min 0 W/m 20,9 km/h (4 Bft) 91,49 %
06.11.2016 18:48 5,6 C 5,0 C 3,9 C 94 % 15 lf 999,4 hPa 0,0 l/m 0 min 2 min 0 W/m 23,0 km/h (4 Bft) 93,62 %
06.11.2016 18:50 5,6 C 5,0 C 3,9 C 94 % 15 lf 999,4 hPa 0,0 l/m 0 min 0 min 0 W/m 14,6 km/h (3 Bft) 93,62 %
06.11.2016 18:52 5,6 C 5,0 C 3,9 C 94 % 15 lf 999,3 hPa 0,0 l/m 0 min 0 min 0 W/m 20,9 km/h (4 Bft) 95,74 %
06.11.2016 18:54 5,6 C 5,0 C 3,9 C 94 % 15 lf 999,3 hPa 0,0 l/m 0 min 0 min 0 W/m 29,3 km/h (5 Bft) 95,65 %
06.11.2016 18:56 5,6 C 5,0 C 3,9 C 94 % 15 lf 999,3 hPa 0,0 l/m 0 min 2 min 0 W/m 20,9 km/h (4 Bft) 97,87 %
06.11.2016 18:58 5,6 C 5,0 C 3,9 C 94 % 15 lf 999,4 hPa 0,0 l/m 0 min 2 min 0 W/m 20,9 km/h (4 Bft) 95,74 %
06.11.2016 19:00 5,6 C 5,0 C 3,9 C 94 % 15 lf 999,4 hPa 0,0 l/m 0 min 0 min 0 W/m 20,9 km/h (4 Bft) 97,87 %
06.11.2016 19:02 5,5 C 5,0 C 3,9 C 94 % 15 lf 999,4 hPa 0,0 l/m 0 min 0 min 0 W/m 29,3 km/h (5 Bft) 97,87 %
06.11.2016 19:04 5,5 C 5,0 C 3,9 C 94 % 15 lf 999,4 hPa 0,0 l/m 0 min 0 min 0 W/m 27,2 km/h (4 Bft) 97,87 %
06.11.2016 19:06 5,5 C 5,0 C 3,9 C 94 % 15 lf 999,5 hPa 0,0 l/m 0 min 0 min 0 W/m 20,9 km/h (4 Bft) 97,83 %
06.11.2016 19:08 5,5 C 5,0 C 3,9 C 95 % 15 lf 999,4 hPa 0,0 l/m 0 min 0 min 0 W/m 18,8 km/h (3 Bft) 95,74 %
06.11.2016 19:10 5,5 C 5,0 C 3,9 C 95 % 15 lf 999,4 hPa 0,0 l/m 0 min 0 min 0 W/m 20,9 km/h (4 Bft) 93,62 %
06.11.2016 19:12 5,5 C 5,0 C 3,9 C 95 % 15 lf 999,4 hPa 0,0 l/m 0 min 0 min 0 W/m 25,1 km/h (4 Bft) 97,87 %
06.11.2016 19:14 5,5 C 5,0 C 3,9 C 95 % 15 lf 999,4 hPa 0,0 l/m 0 min 0 min 0 W/m 20,9 km/h (4 Bft) 97,87 %
06.11.2016 19:16 5,5 C 5,0 C 3,9 C 95 % 15 lf 999,4 hPa 0,0 l/m 0 min 0 min 0 W/m 25,1 km/h (4 Bft) 97,83 %
06.11.2016 19:18 5,5 C 5,0 C 3,9 C 95 % 15 lf 999,4 hPa 0,0 l/m 0 min 0 min 0 W/m 18,8 km/h (3 Bft) 97,87 %
06.11.2016 19:20 5,5 C 5,0 C 3,9 C 95 % 15 lf 999,4 hPa 0,0 l/m 0 min 0 min 0 W/m 18,8 km/h (3 Bft) 97,87 %
06.11.2016 19:22 5,5 C 5,0 C 3,9 C 95 % 15 lf 999,4 hPa 0,0 l/m 0 min 0 min 0 W/m 18,8 km/h (3 Bft) 93,62 %
06.11.2016 19:24 5,5 C 5,0 C 3,9 C 95 % 15 lf 999,4 hPa 0,0 l/m 0 min 0 min 0 W/m 20,9 km/h (4 Bft) 97,87 %
06.11.2016 19:26 5,5 C 5,0 C 3,9 C 95 % 15 lf 999,3 hPa 0,0 l/m 0 min 0 min 0 W/m 18,8 km/h (3 Bft) 93,62 %
06.11.2016 19:28 5,5 C 5,0 C 3,9 C 95 % 15 lf 999,4 hPa 0,0 l/m 0 min 0 min 0 W/m 20,9 km/h (4 Bft) 97,83 %
06.11.2016 19:30 5,5 C 5,0 C 3,9 C 95 % 15 lf 999,5 hPa 0,0 l/m 0 min 0 min 0 W/m 18,8 km/h (3 Bft) 97,87 %
06.11.2016 19:32 5,5 C 5,0 C 3,9 C 95 % 15 lf 999,5 hPa 0,0 l/m 0 min 0 min 0 W/m 20,9 km/h (4 Bft) 100,00 %
06.11.2016 19:34 5,5 C 5,0 C 3,9 C 95 % 15 lf 999,5 hPa 0,0 l/m 0 min 0 min 0 W/m 18,8 km/h (3 Bft) 100,00 %
06.11.2016 19:36 5,5 C 5,0 C 3,9 C 95 % 15 lf 999,5 hPa 0,0 l/m 0 min 0 min 0 W/m 18,8 km/h (3 Bft) 95,74 %
06.11.2016 19:38 5,5 C 5,0 C 3,9 C 95 % 15 lf 999,5 hPa 0,0 l/m 0 min 0 min 0 W/m 20,9 km/h (4 Bft) 95,74 %
06.11.2016 19:40 5,5 C 5,0 C 3,9 C 95 % 15 lf 999,4 hPa 0,0 l/m 0 min 0 min 0 W/m 25,1 km/h (4 Bft) 100,00 %
06.11.2016 19:42 5,5 C 5,0 C 3,9 C 95 % 15 lf 999,4 hPa 0,0 l/m 0 min 0 min 0 W/m 16,7 km/h (3 Bft) 93,62 %
06.11.2016 19:44 5,5 C 5,6 C 3,9 C 95 % 15 lf 999,4 hPa 0,0 l/m 0 min 0 min 0 W/m 29,3 km/h (5 Bft) 100,00 %
06.11.2016 19:46 5,5 C 5,6 C 3,9 C 95 % 15 lf 999,4 hPa 0,0 l/m 0 min 0 min 0 W/m 25,1 km/h (4 Bft) 93,62 %
06.11.2016 19:48 5,5 C 5,6 C 3,9 C 95 % 15 lf 999,5 hPa 0,0 l/m 0 min 0 min 0 W/m 27,2 km/h (4 Bft) 97,87 %
06.11.2016 19:50 5,5 C 5,6 C 3,9 C 95 % 15 lf 999,5 hPa 0,0 l/m 0 min 0 min 0 W/m 25,1 km/h (4 Bft) 93,62 %
06.11.2016 19:52 5,5 C 5,6 C 3,9 C 95 % 15 lf 999,5 hPa 0,0 l/m 0 min 0 min 0 W/m 25,1 km/h (4 Bft) 97,83 %
06.11.2016 19:54 5,5 C 5,6 C 3,9 C 95 % 15 lf 999,5 hPa 0,0 l/m 0 min 0 min 0 W/m 23,0 km/h (4 Bft) 97,87 %
06.11.2016 19:56 5,5 C 5,6 C 3,9 C 95 % 15 lf 999,5 hPa 0,0 l/m 0 min 0 min 0 W/m 14,6 km/h (3 Bft) 93,62 %
06.11.2016 19:58 5,5 C 5,6 C 3,9 C 95 % 15 lf 999,4 hPa 0,0 l/m 0 min 0 min 0 W/m 27,2 km/h (4 Bft) 95,74 %
06.11.2016 20:00 5,5 C 5,6 C 3,9 C 95 % 15 lf 999,4 hPa 0,0 l/m 0 min 0 min 0 W/m 33,5 km/h (5 Bft) 93,62 %
06.11.2016 20:02 5,6 C 5,6 C 3,9 C 95 % 15 lf 999,4 hPa 0,0 l/m 0 min 0 min 0 W/m 23,0 km/h (4 Bft) 95,74 %
06.11.2016 20:04 5,6 C 5,6 C 3,9 C 95 % 15 lf 999,5 hPa 0,0 l/m 0 min 0 min 0 W/m 20,9 km/h (4 Bft) 95,65 %
06.11.2016 20:06 5,6 C 5,6 C 3,9 C 95 % 15 lf 999,5 hPa 0,0 l/m 0 min 0 min 0 W/m 25,1 km/h (4 Bft) 95,74 %
06.11.2016 20:08 5,6 C 5,6 C 3,9 C 95 % 15 lf 999,4 hPa 0,0 l/m 0 min 0 min 0 W/m 20,9 km/h (4 Bft) 93,62 %
06.11.2016 20:10 5,5 C 5,6 C 3,9 C 95 % 15 lf 999,5 hPa 0,0 l/m 0 min 0 min 0 W/m 23,0 km/h (4 Bft) 93,62 %
06.11.2016 20:12 5,5 C 5,6 C 3,9 C 95 % 15 lf 999,4 hPa 0,0 l/m 0 min 0 min 0 W/m 23,0 km/h (4 Bft) 93,62 %
06.11.2016 20:14 5,6 C 5,6 C 3,9 C 95 % 15 lf 999,4 hPa 0,0 l/m 0 min 0 min 0 W/m 18,8 km/h (3 Bft) 93,48 %
06.11.2016 20:16 5,5 C 5,0 C 4,4 C 95 % 15 lf 999,4 hPa 0,0 l/m 0 min 0 min 0 W/m 29,3 km/h (5 Bft) 91,49 %
06.11.2016 20:18 5,5 C 5,0 C 4,4 C 95 % 15 lf 999,4 hPa 0,0 l/m 0 min 0 min 0 W/m 27,2 km/h (4 Bft) 92,00 %
06.11.2016 20:20 5,5 C 5,6 C 4,4 C 95 % 15 lf 999,5 hPa 0,0 l/m 0 min 0 min 0 W/m 27,2 km/h (4 Bft) 93,62 %
06.11.2016 20:22 5,5 C 5,6 C 4,4 C 95 % 15 lf 999,5 hPa 0,0 l/m 0 min 0 min 0 W/m 23,0 km/h (4 Bft) 89,36 %
06.11.2016 20:24 5,5 C 5,6 C 4,4 C 95 % 15 lf 999,5 hPa 0,0 l/m 0 min 0 min 0 W/m 23,0 km/h (4 Bft) 91,49 %
06.11.2016 20:26 5,5 C 5,6 C 4,4 C 94 % 15 lf 999,6 hPa 0,0 l/m 0 min 0 min 0 W/m 20,9 km/h (4 Bft) 91,30 %
06.11.2016 20:28 5,5 C 5,6 C 4,4 C 94 % 15 lf 999,6 hPa 0,0 l/m 0 min 0 min 0 W/m 16,7 km/h (3 Bft) 93,62 %
06.11.2016 20:30 5,5 C 5,6 C 4,4 C 94 % 15 lf 999,6 hPa 0,0 l/m 0 min 0 min 0 W/m 20,9 km/h (4 Bft) 93,62 %
06.11.2016 20:32 5,5 C 5,6 C 4,4 C 94 % 15 lf 999,6 hPa 0,0 l/m 0 min 0 min 0 W/m 27,2 km/h (4 Bft) 91,49 %
06.11.2016 20:34 5,5 C 5,6 C 4,4 C 94 % 15 lf 999,6 hPa 0,0 l/m 0 min 0 min 0 W/m 14,6 km/h (3 Bft) 93,62 %
06.11.2016 20:36 5,5 C 5,6 C 4,4 C 94 % 15 lf 999,7 hPa 0,0 l/m 0 min 0 min 0 W/m 14,6 km/h (3 Bft) 95,74 %
06.11.2016 20:38 5,5 C 5,6 C 4,4 C 94 % 15 lf 999,8 hPa 0,0 l/m 0 min 0 min 0 W/m 16,7 km/h (3 Bft) 93,48 %
06.11.2016 20:40 5,5 C 5,6 C 4,4 C 94 % 15 lf 999,8 hPa 0,0 l/m 0 min 0 min 0 W/m 20,9 km/h (4 Bft) 93,62 %
06.11.2016 20:42 5,5 C 5,6 C 4,4 C 94 % 15 lf 999,8 hPa 0,0 l/m 0 min 0 min 0 W/m 18,8 km/h (3 Bft) 89,36 %
06.11.2016 20:44 5,6 C 5,6 C 4,4 C 94 % 15 lf 999,8 hPa 0,0 l/m 0 min 0 min 0 W/m 18,8 km/h (3 Bft) 95,74 %
06.11.2016 20:46 5,5 C 5,6 C 4,4 C 94 % 15 lf 999,8 hPa 0,0 l/m 0 min 0 min 0 W/m 16,7 km/h (3 Bft) 95,74 %
06.11.2016 20:48 5,6 C 5,6 C 4,4 C 94 % 15 lf 999,8 hPa 0,0 l/m 0 min 0 min 0 W/m 29,3 km/h (5 Bft) 97,83 %
06.11.2016 20:50 5,6 C 5,6 C 4,4 C 94 % 15 lf 999,7 hPa 0,0 l/m 0 min 0 min 0 W/m 23,0 km/h (4 Bft) 97,87 %
06.11.2016 20:52 5,5 C 5,0 C 4,4 C 94 % 15 lf 999,8 hPa 0,0 l/m 0 min 0 min 0 W/m 23,0 km/h (4 Bft) 100,00 %
06.11.2016 20:54 5,5 C 5,0 C 4,4 C 94 % 15 lf 999,8 hPa 0,0 l/m 0 min 0 min 0 W/m 18,8 km/h (3 Bft) 100,00 %
06.11.2016 20:56 5,6 C 5,0 C 4,4 C 94 % 15 lf 999,8 hPa 0,0 l/m 0 min 0 min 0 W/m 18,8 km/h (3 Bft) 97,87 %
06.11.2016 20:58 5,5 C 5,6 C 4,4 C 94 % 15 lf 999,8 hPa 0,0 l/m 0 min 0 min 0 W/m 23,0 km/h (4 Bft) 97,87 %
06.11.2016 21:00 5,5 C 5,6 C 4,4 C 94 % 15 lf 999,8 hPa 0,0 l/m 0 min 0 min 0 W/m 20,9 km/h (4 Bft) 100,00 %
06.11.2016 21:02 5,5 C 5,6 C 4,4 C 94 % 14 lf 999,7 hPa 0,0 l/m 0 min 0 min 0 W/m 25,1 km/h (4 Bft) 100,00 %
06.11.2016 21:04 5,5 C 5,6 C 4,4 C 94 % 14 lf 999,7 hPa 0,0 l/m 0 min 0 min 0 W/m 23,0 km/h (4 Bft) 100,00 %
06.11.2016 21:06 5,5 C 5,6 C 4,4 C 94 % 14 lf 999,8 hPa 0,0 l/m 0 min 2 min 0 W/m 18,8 km/h (3 Bft) 97,87 %
06.11.2016 21:08 5,5 C 5,6 C 4,4 C 94 % 14 lf 999,6 hPa 0,0 l/m 0 min 2 min 0 W/m 16,7 km/h (3 Bft) 97,87 %
06.11.2016 21:10 5,5 C 5,6 C 4,4 C 94 % 14 lf 999,7 hPa 0,0 l/m 0 min 0 min 0 W/m 18,8 km/h (3 Bft) 97,87 %
06.11.2016 21:12 5,5 C 5,6 C 4,4 C 94 % 13 lf 999,7 hPa 0,0 l/m 0 min 0 min 0 W/m 16,7 km/h (3 Bft) 100,00 %
06.11.2016 21:14 5,5 C 5,6 C 4,4 C 94 % 13 lf 999,7 hPa 0,0 l/m 0 min 0 min 0 W/m 16,7 km/h (3 Bft) 97,87 %
06.11.2016 21:16 5,5 C 5,6 C 4,4 C 94 % 13 lf 999,8 hPa 0,0 l/m 0 min 0 min 0 W/m 20,9 km/h (4 Bft) 97,87 %
06.11.2016 21:18 5,5 C 5,6 C 4,4 C 94 % 12 lf 999,8 hPa 0,0 l/m 0 min 0 min 0 W/m 29,3 km/h (5 Bft) 100,00 %
06.11.2016 21:20 5,5 C 5,6 C 4,4 C 94 % 12 lf 999,9 hPa 0,0 l/m 0 min 0 min 0 W/m 20,9 km/h (4 Bft) 100,00 %
06.11.2016 21:22 5,5 C 5,6 C 4,4 C 94 % 10 lf 999,8 hPa 0,0 l/m 0 min 0 min 0 W/m 20,9 km/h (4 Bft) 95,74 %
06.11.2016 21:24 5,5 C 5,6 C 4,4 C 94 % 10 lf 999,8 hPa 0,0 l/m 0 min 0 min 0 W/m 20,9 km/h (4 Bft) 97,83 %
06.11.2016 21:26 5,5 C 5,6 C 4,4 C 94 % 9 lf 999,8 hPa 0,0 l/m 0 min 0 min 0 W/m 14,6 km/h (3 Bft) 97,87 %
06.11.2016 21:28 5,5 C 5,6 C 4,4 C 94 % 9 lf 999,8 hPa 0,0 l/m 0 min 0 min 0 W/m 18,8 km/h (3 Bft) 97,87 %
06.11.2016 21:30 5,5 C 5,6 C 4,4 C 94 % 7 lf 999,9 hPa 0,0 l/m 0 min 0 min 0 W/m 23,0 km/h (4 Bft) 100,00 %
06.11.2016 21:32 5,5 C 5,6 C 4,4 C 94 % 6 lf 999,9 hPa 0,0 l/m 0 min 0 min 0 W/m 20,9 km/h (4 Bft) 100,00 %
06.11.2016 21:34 5,5 C 5,6 C 4,4 C 94 % 4 lf 999,9 hPa 0,0 l/m 0 min 0 min 0 W/m 23,0 km/h (4 Bft) 100,00 %
06.11.2016 21:36 5,6 C 5,6 C 4,4 C 94 % 4 lf 1000,0 hPa 0,0 l/m 0 min 0 min 0 W/m 20,9 km/h (4 Bft) 97,83 %
06.11.2016 21:38 5,6 C 5,6 C 4,4 C 94 % 3 lf 999,9 hPa 0,0 l/m 0 min 0 min 0 W/m 14,6 km/h (3 Bft) 100,00 %
06.11.2016 21:40 5,6 C 5,6 C 4,4 C 94 % 3 lf 999,9 hPa 0,0 l/m 0 min 0 min 0 W/m 16,7 km/h (3 Bft) 95,74 %
06.11.2016 21:42 5,5 C 5,6 C 4,4 C 94 % 2 lf 999,9 hPa 0,0 l/m 0 min 0 min 0 W/m 27,2 km/h (4 Bft) 100,00 %
06.11.2016 21:44 5,6 C 5,6 C 4,4 C 94 % 2 lf 999,9 hPa 0,0 l/m 0 min 0 min 0 W/m 18,8 km/h (3 Bft) 95,74 %
06.11.2016 21:46 5,6 C 5,6 C 4,4 C 94 % 1 lf 1000,0 hPa 0,0 l/m 0 min 0 min 0 W/m 23,0 km/h (4 Bft) 100,00 %
06.11.2016 21:48 5,6 C 5,0 C 4,4 C 94 % 1 lf 1000,0 hPa 0,0 l/m 0 min 0 min 0 W/m 25,1 km/h (4 Bft) 97,83 %
06.11.2016 21:50 5,6 C 5,0 C 4,4 C 94 % 1 lf 1000,0 hPa 0,0 l/m 0 min 0 min 0 W/m 20,9 km/h (4 Bft) 97,87 %
06.11.2016 21:52 5,6 C 5,0 C 3,9 C 94 % 1 lf 1000,0 hPa 0,0 l/m 0 min 0 min 0 W/m 18,8 km/h (3 Bft) 97,87 %
06.11.2016 21:54 5,6 C 5,0 C 3,9 C 94 % 0 lf 1000,0 hPa 0,0 l/m 0 min 0 min 0 W/m 18,8 km/h (3 Bft) 100,00 %
06.11.2016 21:56 5,5 C 5,0 C 3,9 C 94 % 1 lf 1000,0 hPa 0,0 l/m 0 min 0 min 0 W/m 12,6 km/h (3 Bft) 97,87 %
06.11.2016 21:58 5,5 C 5,0 C 3,9 C 94 % 0 lf 999,9 hPa 0,0 l/m 0 min 0 min 0 W/m 18,8 km/h (3 Bft) 97,83 %
06.11.2016 22:00 5,5 C 5,0 C 3,9 C 94 % 0 lf 1000,0 hPa 0,0 l/m 0 min 0 min 0 W/m 18,8 km/h (3 Bft) 100,00 %
06.11.2016 22:02 5,5 C 5,0 C 3,9 C 94 % 0 lf 1000,0 hPa 0,0 l/m 0 min 0 min 0 W/m 20,9 km/h (4 Bft) 95,74 %
06.11.2016 22:04 5,4 C 5,0 C 3,9 C 93 % 0 lf 1000,0 hPa 0,0 l/m 0 min 0 min 0 W/m 20,9 km/h (4 Bft) 97,87 %
06.11.2016 22:06 5,4 C 5,0 C 3,9 C 93 % 0 lf 1000,0 hPa 0,0 l/m 0 min 0 min 0 W/m 16,7 km/h (3 Bft) 95,74 %
06.11.2016 22:08 5,4 C 5,0 C 3,9 C 93 % 0 lf 999,9 hPa 0,0 l/m 0 min 0 min 0 W/m 16,7 km/h (3 Bft) 95,74 %
06.11.2016 22:10 5,4 C 5,0 C 3,9 C 93 % 0 lf 1000,0 hPa 0,0 l/m 0 min 0 min 0 W/m 12,6 km/h (3 Bft) 95,74 %
06.11.2016 22:12 5,4 C 5,0 C 3,9 C 93 % 0 lf 1000,0 hPa 0,0 l/m 0 min 0 min 0 W/m 14,6 km/h (3 Bft) 97,83 %
06.11.2016 22:14 5,4 C 5,0 C 3,3 C 93 % 0 lf 999,9 hPa 0,0 l/m 0 min 0 min 0 W/m 18,8 km/h (3 Bft) 95,74 %
06.11.2016 22:16 5,4 C 5,0 C 3,3 C 93 % 0 lf 999,9 hPa 0,0 l/m 0 min 0 min 0 W/m 12,6 km/h (3 Bft) 95,74 %
06.11.2016 22:18 5,4 C 5,0 C 3,3 C 93 % 0 lf 999,9 hPa 0,0 l/m 0 min 0 min 0 W/m 12,6 km/h (3 Bft) 97,87 %
06.11.2016 22:20 5,3 C 5,0 C 3,3 C 93 % 0 lf 999,9 hPa 0,0 l/m 0 min 0 min 0 W/m 14,6 km/h (3 Bft) 95,74 %
06.11.2016 22:22 5,3 C 4,4 C 3,3 C 93 % 0 lf 999,9 hPa 0,0 l/m 0 min 0 min 0 W/m 14,6 km/h (3 Bft) 97,83 %
06.11.2016 22:24 5,3 C 4,4 C 3,3 C 93 % 0 lf 1000,0 hPa 0,0 l/m 0 min 0 min 0 W/m 18,8 km/h (3 Bft) 93,62 %
06.11.2016 22:26 5,3 C 4,4 C 3,3 C 93 % 0 lf 1000,0 hPa 0,0 l/m 0 min 0 min 0 W/m 10,5 km/h (2 Bft) 93,62 %
06.11.2016 22:28 5,3 C 4,4 C 3,3 C 93 % 0 lf 1000,0 hPa 0,0 l/m 0 min 0 min 0 W/m 12,6 km/h (3 Bft) 97,87 %
06.11.2016 22:30 5,3 C 5,0 C 3,3 C 93 % 0 lf 1000,1 hPa 0,0 l/m 0 min 0 min 0 W/m 12,6 km/h (3 Bft) 100,00 %
06.11.2016 22:32 5,3 C 5,0 C 3,9 C 93 % 0 lf 1000,1 hPa 0,0 l/m 0 min 0 min 0 W/m 10,5 km/h (2 Bft) 91,49 %
06.11.2016 22:34 5,2 C 5,0 C 3,9 C 93 % 0 lf 1000,0 hPa 0,0 l/m 0 min 0 min 0 W/m 10,5 km/h (2 Bft) 97,83 %
06.11.2016 22:36 5,3 C 5,0 C 3,9 C 93 % 0 lf 1000,1 hPa 0,0 l/m 0 min 0 min 0 W/m 12,6 km/h (3 Bft) 97,87 %
06.11.2016 22:38 5,2 C 5,0 C 3,9 C 93 % 0 lf 1000,0 hPa 0,0 l/m 0 min 0 min 0 W/m 12,6 km/h (3 Bft) 93,62 %
06.11.2016 22:40 5,2 C 5,0 C 3,9 C 93 % 0 lf 1000,0 hPa 0,0 l/m 0 min 0 min 0 W/m 8,4 km/h (2 Bft) 93,62 %
06.11.2016 22:42 5,2 C 5,0 C 3,3 C 93 % 0 lf 1000,0 hPa 0,0 l/m 0 min 0 min 0 W/m 6,3 km/h (2 Bft) 95,74 %
06.11.2016 22:44 5,2 C 5,0 C 3,3 C 93 % 0 lf 1000,0 hPa 0,0 l/m 0 min 0 min 0 W/m 10,5 km/h (2 Bft) 95,74 %
06.11.2016 22:46 5,2 C 5,0 C 3,3 C 93 % 0 lf 1000,1 hPa 0,0 l/m 0 min 0 min 0 W/m 10,5 km/h (2 Bft) 95,65 %
06.11.2016 22:48 5,2 C 5,0 C 3,3 C 93 % 0 lf 1000,1 hPa 0,0 l/m 0 min 0 min 0 W/m 10,5 km/h (2 Bft) 95,74 %
06.11.2016 22:50 5,2 C 5,0 C 3,9 C 93 % 0 lf 1000,1 hPa 0,0 l/m 0 min 0 min 0 W/m 8,4 km/h (2 Bft) 95,74 %
06.11.2016 22:52 5,2 C 5,0 C 3,9 C 93 % 0 lf 1000,1 hPa 0,0 l/m 0 min 0 min 0 W/m 6,3 km/h (2 Bft) 95,74 %
06.11.2016 22:54 5,2 C 5,0 C 3,9 C 93 % 0 lf 1000,1 hPa 0,0 l/m 0 min 0 min 0 W/m 10,5 km/h (2 Bft) 89,36 %
06.11.2016 22:56 5,2 C 5,0 C 3,9 C 93 % 0 lf 1000,1 hPa 0,0 l/m 0 min 0 min 0 W/m 8,4 km/h (2 Bft) 95,74 %
06.11.2016 22:58 5,2 C 5,0 C 3,9 C 93 % 0 lf 1000,2 hPa 0,0 l/m 0 min 0 min 0 W/m 6,3 km/h (2 Bft) 93,48 %
06.11.2016 23:00 5,2 C 5,0 C 3,9 C 93 % 0 lf 1000,2 hPa 0,0 l/m 0 min 0 min 0 W/m 6,3 km/h (2 Bft) 95,74 %
06.11.2016 23:02 5,2 C 5,0 C 3,9 C 93 % 0 lf 1000,2 hPa 0,0 l/m 0 min 0 min 0 W/m 8,4 km/h (2 Bft) 91,49 %
06.11.2016 23:04 5,2 C 5,0 C 3,9 C 93 % 0 lf 1000,2 hPa 0,0 l/m 0 min 0 min 0 W/m 10,5 km/h (2 Bft) 93,62 %
06.11.2016 23:06 5,2 C 5,0 C 3,9 C 93 % 0 lf 1000,2 hPa 0,0 l/m 0 min 0 min 0 W/m 6,3 km/h (2 Bft) 91,49 %
06.11.2016 23:08 5,2 C 5,0 C 3,9 C 93 % 0 lf 1000,2 hPa 0,0 l/m 0 min 0 min 0 W/m 8,4 km/h (2 Bft) 87,23 %
06.11.2016 23:10 5,2 C 5,0 C 3,9 C 93 % 0 lf 1000,2 hPa 0,0 l/m 0 min 0 min 0 W/m 14,6 km/h (3 Bft) 93,48 %
06.11.2016 23:12 5,2 C 5,0 C 3,9 C 93 % 0 lf 1000,3 hPa 0,0 l/m 0 min 0 min 0 W/m 8,4 km/h (2 Bft) 93,62 %
06.11.2016 23:14 5,2 C 5,0 C 3,9 C 93 % 0 lf 1000,3 hPa 0,0 l/m 0 min 0 min 0 W/m 12,6 km/h (3 Bft) 91,49 %
06.11.2016 23:16 5,2 C 5,0 C 3,9 C 93 % 0 lf 1000,4 hPa 0,0 l/m 0 min 0 min 0 W/m 23,0 km/h (4 Bft) 93,62 %
06.11.2016 23:18 5,2 C 5,0 C 3,9 C 93 % 0 lf 1000,4 hPa 0,0 l/m 0 min 0 min 0 W/m 12,6 km/h (3 Bft) 91,49 %
06.11.2016 23:20 5,2 C 5,0 C 3,9 C 93 % 0 lf 1000,4 hPa 0,0 l/m 0 min 0 min 0 W/m 10,5 km/h (2 Bft) 95,65 %
06.11.2016 23:22 5,2 C 5,0 C 3,9 C 93 % 0 lf 1000,4 hPa 0,0 l/m 0 min 0 min 0 W/m 10,5 km/h (2 Bft) 93,62 %
06.11.2016 23:24 5,2 C 5,0 C 3,9 C 93 % 0 lf 1000,4 hPa 0,0 l/m 0 min 0 min 0 W/m 12,6 km/h (3 Bft) 95,74 %
06.11.2016 23:26 5,2 C 5,0 C 3,9 C 93 % 0 lf 1000,4 hPa 0,0 l/m 0 min 0 min 0 W/m 12,6 km/h (3 Bft) 95,74 %
06.11.2016 23:28 5,2 C 5,0 C 3,9 C 93 % 0 lf 1000,4 hPa 0,0 l/m 0 min 0 min 0 W/m 14,6 km/h (3 Bft) 95,74 %
06.11.2016 23:30 5,2 C 5,0 C 3,9 C 93 % 0 lf 1000,4 hPa 0,0 l/m 0 min 0 min 0 W/m 14,6 km/h (3 Bft) 97,87 %
06.11.2016 23:32 5,2 C 5,0 C 3,9 C 93 % 0 lf 1000,3 hPa 0,0 l/m 0 min 0 min 0 W/m 14,6 km/h (3 Bft) 95,65 %
06.11.2016 23:34 5,2 C 5,0 C 3,9 C 93 % 0 lf 1000,4 hPa 0,0 l/m 0 min 0 min 0 W/m 16,7 km/h (3 Bft) 91,49 %
06.11.2016 23:36 5,3 C 5,0 C 3,9 C 93 % 0 lf 1000,4 hPa 0,0 l/m 0 min 0 min 0 W/m 14,6 km/h (3 Bft) 95,74 %
06.11.2016 23:38 5,3 C 5,0 C 3,9 C 93 % 0 lf 1000,6 hPa 0,0 l/m 0 min 0 min 0 W/m 12,6 km/h (3 Bft) 95,74 %
06.11.2016 23:40 5,3 C 5,0 C 3,9 C 93 % 0 lf 1000,6 hPa 0,0 l/m 0 min 0 min 0 W/m 14,6 km/h (3 Bft) 89,36 %
06.11.2016 23:42 5,3 C 5,0 C 3,9 C 93 % 0 lf 1000,6 hPa 0,0 l/m 0 min 0 min 0 W/m 10,5 km/h (2 Bft) 95,74 %
06.11.2016 23:44 5,3 C 5,0 C 3,9 C 93 % 0 lf 1000,6 hPa 0,0 l/m 0 min 0 min 0 W/m 10,5 km/h (2 Bft) 93,48 %
06.11.2016 23:46 5,3 C 5,0 C 3,9 C 93 % 0 lf 1000,6 hPa 0,0 l/m 0 min 0 min 0 W/m 14,6 km/h (3 Bft) 93,62 %
06.11.2016 23:48 5,3 C 5,0 C 3,9 C 93 % 0 lf 1000,6 hPa 0,0 l/m 0 min 0 min 0 W/m 10,5 km/h (2 Bft) 89,36 %
06.11.2016 23:50 5,3 C 5,0 C 3,9 C 93 % 0 lf 1000,6 hPa 0,0 l/m 0 min 0 min 0 W/m 10,5 km/h (2 Bft) 93,62 %
06.11.2016 23:52 5,3 C 5,0 C 3,9 C 93 % 0 lf 1000,6 hPa 0,0 l/m 0 min 0 min 0 W/m 14,6 km/h (3 Bft) 87,23 %
06.11.2016 23:54 5,4 C 5,0 C 3,9 C 93 % 0 lf 1000,6 hPa 0,0 l/m 0 min 0 min 0 W/m 12,6 km/h (3 Bft) 93,62 %
06.11.2016 23:56 5,4 C 5,0 C 3,9 C 93 % 0 lf 1000,7 hPa 0,0 l/m 0 min 0 min 0 W/m 10,5 km/h (2 Bft) 91,30 %
06.11.2016 23:58 5,4 C 5,0 C 3,9 C 93 % 0 lf 1000,6 hPa 0,0 l/m 0 min 0 min 0 W/m 14,6 km/h (3 Bft) 93,62 %
_ Min-Zeit 06:20 04:56 04:50 13:40 05:30 14:38 - - - - 00:56 14:52
Minimum _ 4,2 C 3,9 C 2,2 C 83 % 0 lf 998,0 hPa - - - - 6,3 km/h (2 Bft) 80,85 %
_ Max-Zeit 12:46 11:08 12:36 02:44 00:02 23:56 00:05 07:52 00:00 12:38 12:50 00:06
Maximum _ 7,9 C 14,4 C 8,3 C 96 % 15 lf 1000,7 hPa 0,2 l/m 2 min 2 min 480 W/m 46,0 km/h
W-NW (6 Bft)
100,00 %
Durchschnitt _ 5,7 C 6,1 C 4,3 C 92 % 7 lf 999,0 hPa #2,0 l/m #4:06 h #4:11 h 129 W/m 21,6 km/h (4 Bft) 95,98 %
© 2016 W. Hausmann